Time,TemperatureF,DewpointF,PressureIn,WindDirection,WindDirectionDegrees,WindSpeedMPH,WindSpeedGustMPH,Humidity,HourlyPrecipIn,Conditions,Clouds,dailyrainin,SoftwareType,DateUTC
2013-07-10 00:00:00,72.1,43.0,29.77,SSW,202,3.8,3.8,35,0.00,CLR,,0.00,WeatherDisplay:10.37,2013-07-10 04:00:00,
2013-07-10 00:01:00,72.1,43.0,29.77,SSW,202,3.8,3.8,35,0.00,CLR,,0.00,WeatherDisplay:10.37,2013-07-10 04:01:00,
2013-07-10 00:03:00,72.1,43.0,29.77,SW,225,3.8,3.8,35,0.00,CLR,,0.00,WeatherDisplay:10.37,2013-07-10 04:03:00,
2013-07-10 00:06:00,72.0,42.8,29.71,SW,225,3.8,3.8,35,0.00,CLR,,0.00,WeatherDisplay:10.37,2013-07-10 04:06:00,
2013-07-10 00:07:00,72.1,43.0,29.71,SW,225,3.8,3.8,35,0.00,CLR,,0.00,WeatherDisplay:10.37,2013-07-10 04:07:00,
2013-07-10 00:08:00,72.1,43.0,29.80,WNW,292,3.8,3.8,35,0.00,CLR,,0.00,WeatherDisplay:10.37,2013-07-10 04:08:00,
2013-07-10 00:11:00,72.1,43.0,29.77,South,180,3.8,3.8,35,0.00,CLR,,0.00,WeatherDisplay:10.37,2013-07-10 04:11:00,
2013-07-10 00:12:00,72.1,43.0,29.75,ESE,112,3.8,3.8,35,0.00,CLR,,0.00,WeatherDisplay:10.37,2013-07-10 04:12:00,
2013-07-10 00:13:00,72.1,43.0,29.75,ESE,112,3.8,3.8,35,0.00,CLR,,0.00,WeatherDisplay:10.37,2013-07-10 04:13:00,
2013-07-10 00:14:00,72.1,43.0,29.77,NW,315,3.8,3.8,35,0.00,CLR,,0.00,WeatherDisplay:10.37,2013-07-10 04:14:00,
2013-07-10 00:18:00,72.1,43.0,29.78,SSE,157,3.8,3.8,35,0.00,CLR,,0.00,WeatherDisplay:10.37,2013-07-10 04:18:00,
2013-07-10 00:19:00,72.1,43.0,29.78,SSE,157,3.8,0.0,35,0.00,CLR,,0.00,WeatherDisplay:10.37,2013-07-10 04:19:00,
2013-07-10 00:20:00,72.1,43.7,29.75,SSE,157,3.8,0.0,36,0.00,CLR,,0.00,WeatherDisplay:10.37,2013-07-10 04:20:00,
2013-07-10 00:21:00,72.1,43.7,29.80,SSE,157,3.8,0.0,36,0.00,CLR,,0.00,WeatherDisplay:10.37,2013-07-10 04:21:00,
2013-07-10 00:23:00,72.1,44.4,29.75,SSE,157,3.8,0.0,37,0.00,CLR,,0.00,WeatherDisplay:10.37,2013-07-10 04:23:00,
2013-07-10 00:26:00,72.1,45.1,29.75,WSW,247,3.8,3.8,38,0.00,CLR,,0.00,WeatherDisplay:10.37,2013-07-10 04:26:00,
2013-07-10 00:27:00,72.1,45.1,29.75,WSW,247,3.8,0.0,38,0.00,CLR,,0.00,WeatherDisplay:10.37,2013-07-10 04:27:00,
2013-07-10 00:28:00,72.1,45.1,29.77,WSW,247,3.8,0.0,38,0.00,CLR,,0.00,WeatherDisplay:10.37,2013-07-10 04:28:00,
2013-07-10 00:32:00,72.0,44.3,29.75,SSW,202,3.8,3.8,37,0.00,CLR,,0.00,WeatherDisplay:10.37,2013-07-10 04:32:00,
2013-07-10 00:33:00,72.0,44.3,29.75,West,270,3.8,3.8,37,0.00,CLR,,0.00,WeatherDisplay:10.37,2013-07-10 04:33:00,
2013-07-10 00:35:00,72.0,44.3,29.77,South,180,3.8,3.8,37,0.00,CLR,,0.00,WeatherDisplay:10.37,2013-07-10 04:35:00,
2013-07-10 00:38:00,72.0,44.3,29.74,South,180,3.8,0.0,37,0.00,CLR,,0.00,WeatherDisplay:10.37,2013-07-10 04:38:00,
2013-07-10 00:40:00,72.0,44.3,29.75,South,180,1.3,0.0,37,0.00,CLR,,0.00,WeatherDisplay:10.37,2013-07-10 04:40:00,
2013-07-10 00:41:00,72.0,44.3,29.75,South,180,1.3,0.0,37,0.00,CLR,,0.00,WeatherDisplay:10.37,2013-07-10 04:41:00,
2013-07-10 00:42:00,72.0,44.3,29.77,SSW,202,1.3,0.0,37,0.00,CLR,,0.00,WeatherDisplay:10.37,2013-07-10 04:42:00,
2013-07-10 00:43:00,72.0,45.0,29.74,SSW,202,1.3,0.0,38,0.00,CLR,,0.00,WeatherDisplay:10.37,2013-07-10 04:43:00,
2013-07-10 00:45:00,71.8,44.8,29.74,SW,225,1.3,1.3,38,0.00,CLR,,0.00,WeatherDisplay:10.37,2013-07-10 04:45:00,
2013-07-10 00:48:00,71.8,44.8,29.75,SSE,157,1.3,1.3,38,0.00,CLR,,0.00,WeatherDisplay:10.37,2013-07-10 04:48:00,
2013-07-10 00:51:00,71.8,45.5,29.73,South,180,3.5,3.5,39,0.00,CLR,,0.00,WeatherDisplay:10.37,2013-07-10 04:51:00,
2013-07-10 00:52:00,71.8,45.5,29.73,South,180,3.5,3.5,39,0.00,CLR,,0.00,WeatherDisplay:10.37,2013-07-10 04:52:00,
2013-07-10 00:53:00,71.8,44.8,29.73,South,180,3.5,3.5,38,0.00,CLR,,0.00,WeatherDisplay:10.37,2013-07-10 04:53:00,
2013-07-10 00:54:00,71.8,44.8,29.75,South,180,3.5,3.5,38,0.00,CLR,,0.00,WeatherDisplay:10.37,2013-07-10 04:54:00,
2013-07-10 00:55:00,71.8,44.8,29.75,South,180,3.5,0.0,38,0.00,CLR,,0.00,WeatherDisplay:10.37,2013-07-10 04:55:00,
2013-07-10 00:57:00,71.8,44.8,29.73,South,180,3.5,0.0,38,0.00,CLR,,0.00,WeatherDisplay:10.37,2013-07-10 04:57:00,
2013-07-10 00:58:00,71.8,44.8,29.73,South,180,3.5,3.5,38,0.00,CLR,,0.00,WeatherDisplay:10.37,2013-07-10 04:58:00,
2013-07-10 01:01:00,71.8,44.8,29.73,South,180,3.5,0.0,38,0.00,CLR,,0.00,WeatherDisplay:10.37,2013-07-10 05:01:00,
2013-07-10 01:02:00,71.8,44.8,29.74,ESE,112,3.5,0.0,38,0.00,CLR,,0.00,WeatherDisplay:10.37,2013-07-10 05:02:00,
2013-07-10 01:05:00,71.8,44.1,29.72,SE,135,3.5,3.5,37,0.00,CLR,,0.00,WeatherDisplay:10.37,2013-07-10 05:05:00,
2013-07-10 01:06:00,71.8,44.8,29.72,SE,135,3.5,3.5,38,0.00,CLR,,0.00,WeatherDisplay:10.37,2013-07-10 05:06:00,
2013-07-10 01:07:00,71.8,44.8,29.72,SE,135,3.5,3.5,38,0.00,CLR,,0.00,WeatherDisplay:10.37,2013-07-10 05:07:00,
2013-07-10 01:08:00,71.8,44.1,29.74,South,180,3.5,3.5,37,0.00,CLR,,0.00,WeatherDisplay:10.37,2013-07-10 05:08:00,
2013-07-10 01:12:00,71.6,44.6,29.75,South,180,3.5,3.5,38,0.00,CLR,,0.00,WeatherDisplay:10.37,2013-07-10 05:12:00,
2013-07-10 01:13:00,71.6,44.6,29.75,South,180,3.5,3.5,38,0.00,CLR,,0.00,WeatherDisplay:10.37,2013-07-10 05:13:00,
2013-07-10 01:14:00,71.6,44.6,29.72,SSW,202,3.5,3.5,38,0.00,CLR,,0.00,WeatherDisplay:10.37,2013-07-10 05:14:00,
2013-07-10 01:16:00,71.6,45.3,29.72,SSE,157,3.5,3.5,39,0.00,CLR,,0.00,WeatherDisplay:10.37,2013-07-10 05:16:00,
2013-07-10 01:18:00,71.6,45.3,29.75,SSW,202,3.5,3.5,39,0.00,CLR,,0.00,WeatherDisplay:10.37,2013-07-10 05:18:00,
2013-07-10 01:19:00,71.6,45.3,29.75,SSW,202,3.5,0.0,39,0.00,CLR,,0.00,WeatherDisplay:10.37,2013-07-10 05:19:00,
2013-07-10 01:20:00,71.6,45.3,29.74,ESE,112,3.5,0.0,39,0.00,CLR,,0.00,WeatherDisplay:10.37,2013-07-10 05:20:00,
2013-07-10 01:23:00,71.6,44.6,29.72,South,180,3.5,0.0,38,0.00,CLR,,0.00,WeatherDisplay:10.37,2013-07-10 05:23:00,
2013-07-10 01:26:00,71.4,43.8,29.75,SSE,157,3.5,3.5,37,0.00,CLR,,0.00,WeatherDisplay:10.37,2013-07-10 05:26:00,
2013-07-10 01:28:00,71.4,44.5,29.71,SSE,157,3.5,3.5,38,0.00,CLR,,0.00,WeatherDisplay:10.37,2013-07-10 05:28:00,
2013-07-10 01:29:00,71.4,44.5,29.72,SE,135,3.5,3.5,38,0.00,CLR,,0.00,WeatherDisplay:10.37,2013-07-10 05:29:00,
2013-07-10 01:30:00,71.4,45.2,29.75,SW,225,3.5,3.5,39,0.00,CLR,,0.00,WeatherDisplay:10.37,2013-07-10 05:30:00,
2013-07-10 01:31:00,71.4,45.2,29.75,SW,225,3.5,3.5,39,0.00,CLR,,0.00,WeatherDisplay:10.37,2013-07-10 05:31:00,
2013-07-10 01:34:00,71.4,45.2,29.75,SW,225,3.5,0.0,39,0.00,CLR,,0.00,WeatherDisplay:10.37,2013-07-10 05:34:00,
2013-07-10 01:35:00,71.4,45.2,29.74,SW,225,3.5,0.0,39,0.00,CLR,,0.00,WeatherDisplay:10.37,2013-07-10 05:35:00,
2013-07-10 01:37:00,71.4,45.2,29.72,SSE,157,3.5,3.5,39,0.00,CLR,,0.00,WeatherDisplay:10.37,2013-07-10 05:37:00,
2013-07-10 01:38:00,71.4,45.2,29.72,SSW,202,3.5,3.5,39,0.00,CLR,,0.00,WeatherDisplay:10.37,2013-07-10 05:38:00,
2013-07-10 01:43:00,71.4,45.2,29.71,SSE,157,3.5,3.5,39,0.00,CLR,,0.00,WeatherDisplay:10.37,2013-07-10 05:43:00,
2013-07-10 01:44:00,71.4,45.2,29.75,ESE,112,3.5,3.5,39,0.00,CLR,,0.00,WeatherDisplay:10.37,2013-07-10 05:44:00,
2013-07-10 01:46:00,71.4,45.8,29.72,ESE,112,3.5,3.5,40,0.00,CLR,,0.00,WeatherDisplay:10.37,2013-07-10 05:46:00,
2013-07-10 01:48:00,71.4,45.8,29.75,SSW,202,3.5,3.5,40,0.00,CLR,,0.00,WeatherDisplay:10.37,2013-07-10 05:48:00,
2013-07-10 01:50:00,71.4,45.2,29.75,SW,225,3.5,3.5,39,0.00,CLR,,0.00,WeatherDisplay:10.37,2013-07-10 05:50:00,
2013-07-10 01:53:00,71.4,45.2,29.75,South,180,3.5,3.5,39,0.00,CLR,,0.00,WeatherDisplay:10.37,2013-07-10 05:53:00,
2013-07-10 01:56:00,71.4,45.2,29.71,SSW,202,3.5,3.5,39,0.00,CLR,,0.00,WeatherDisplay:10.37,2013-07-10 05:56:00,
2013-07-10 01:57:00,71.4,45.2,29.75,SSW,202,3.5,3.5,39,0.00,CLR,,0.00,WeatherDisplay:10.37,2013-07-10 05:57:00,
2013-07-10 01:58:00,71.4,45.2,29.75,SSW,202,3.5,0.0,39,0.00,CLR,,0.00,WeatherDisplay:10.37,2013-07-10 05:58:00,
2013-07-10 01:59:00,71.4,45.8,29.69,ESE,112,3.5,0.0,40,0.00,CLR,,0.00,WeatherDisplay:10.37,2013-07-10 05:59:00,
2013-07-10 02:02:00,71.4,45.2,29.74,South,180,3.5,3.5,39,0.00,CLR,,0.00,WeatherDisplay:10.37,2013-07-10 06:02:00,
2013-07-10 02:04:00,71.4,45.2,29.71,South,180,3.5,3.5,39,0.00,CLR,,0.00,WeatherDisplay:10.37,2013-07-10 06:04:00,
2013-07-10 02:05:00,71.4,44.5,29.72,South,180,3.5,3.5,38,0.00,CLR,,0.00,WeatherDisplay:10.37,2013-07-10 06:05:00,
2013-07-10 02:06:00,71.4,44.5,29.69,South,180,3.5,3.5,38,0.00,CLR,,0.00,WeatherDisplay:10.37,2013-07-10 06:06:00,
2013-07-10 02:10:00,71.4,43.8,29.72,SSE,157,3.5,0.0,37,0.00,CLR,,0.00,WeatherDisplay:10.37,2013-07-10 06:10:00,
2013-07-10 02:12:00,71.4,43.8,29.65,SSE,157,3.5,0.0,37,0.00,CLR,,0.00,WeatherDisplay:10.37,2013-07-10 06:12:00,
2013-07-10 02:15:00,71.2,44.3,29.74,SW,225,3.5,0.0,38,0.00,CLR,,0.00,WeatherDisplay:10.37,2013-07-10 06:15:00,
2013-07-10 02:16:00,71.2,44.3,29.74,SW,225,3.5,3.5,38,0.00,CLR,,0.00,WeatherDisplay:10.37,2013-07-10 06:16:00,
2013-07-10 02:17:00,71.2,44.3,29.74,South,180,3.5,3.5,38,0.00,CLR,,0.00,WeatherDisplay:10.37,2013-07-10 06:17:00,
2013-07-10 02:18:00,71.2,44.3,29.71,South,180,3.5,3.5,38,0.00,CLR,,0.00,WeatherDisplay:10.37,2013-07-10 06:18:00,
2013-07-10 02:20:00,71.2,44.3,29.69,SSW,202,3.5,3.5,38,0.00,CLR,,0.00,WeatherDisplay:10.37,2013-07-10 06:20:00,
2013-07-10 02:22:00,71.4,44.5,29.74,SSW,202,3.5,3.5,38,0.00,CLR,,0.00,WeatherDisplay:10.37,2013-07-10 06:22:00,
2013-07-10 02:25:00,71.4,44.5,29.69,SW,225,3.5,0.0,38,0.00,CLR,,0.00,WeatherDisplay:10.37,2013-07-10 06:25:00,
2013-07-10 02:26:00,71.4,45.2,29.69,SW,225,3.5,0.0,39,0.00,CLR,,0.00,WeatherDisplay:10.37,2013-07-10 06:26:00,
2013-07-10 02:29:00,71.2,45.0,29.69,South,180,3.5,3.5,39,0.00,CLR,,0.00,WeatherDisplay:10.37,2013-07-10 06:29:00,
2013-07-10 02:33:00,71.2,45.0,29.69,SE,135,3.5,0.0,39,0.00,CLR,,0.00,WeatherDisplay:10.37,2013-07-10 06:33:00,
2013-07-10 02:34:00,71.2,45.0,29.69,SE,135,3.5,3.5,39,0.00,CLR,,0.00,WeatherDisplay:10.37,2013-07-10 06:34:00,
2013-07-10 02:35:00,71.2,45.0,29.73,SSE,157,3.5,3.5,39,0.00,CLR,,0.00,WeatherDisplay:10.37,2013-07-10 06:35:00,
2013-07-10 02:37:00,71.2,45.0,29.69,SSE,157,3.5,3.5,39,0.00,CLR,,0.00,WeatherDisplay:10.37,2013-07-10 06:37:00,
2013-07-10 02:38:00,71.2,44.3,29.71,South,180,3.5,3.5,38,0.00,CLR,,0.00,WeatherDisplay:10.37,2013-07-10 06:38:00,
2013-07-10 02:40:00,71.2,44.3,29.69,SE,135,2.3,2.3,38,0.00,CLR,,0.00,WeatherDisplay:10.37,2013-07-10 06:40:00,
2013-07-10 02:41:00,71.2,44.3,29.69,NW,315,2.3,2.3,38,0.00,CLR,,0.00,WeatherDisplay:10.37,2013-07-10 06:41:00,
2013-07-10 02:43:00,71.2,44.3,29.74,NW,315,3.8,3.8,38,0.00,CLR,,0.00,WeatherDisplay:10.37,2013-07-10 06:43:00,
2013-07-10 02:44:00,71.2,45.0,29.74,South,180,3.8,3.8,39,0.00,CLR,,0.00,WeatherDisplay:10.37,2013-07-10 06:44:00,
2013-07-10 02:46:00,71.2,45.0,29.69,SSE,157,3.8,3.8,39,0.00,CLR,,0.00,WeatherDisplay:10.37,2013-07-10 06:46:00,
2013-07-10 02:47:00,71.2,45.0,29.73,SSE,157,3.8,3.8,39,0.00,CLR,,0.00,WeatherDisplay:10.37,2013-07-10 06:47:00,
2013-07-10 02:50:00,71.2,45.0,29.69,SW,225,3.8,3.8,39,0.00,CLR,,0.00,WeatherDisplay:10.37,2013-07-10 06:50:00,
2013-07-10 02:53:00,71.2,45.0,29.69,South,180,3.8,3.8,39,0.00,CLR,,0.00,WeatherDisplay:10.37,2013-07-10 06:53:00,
2013-07-10 02:54:00,71.2,45.0,29.69,South,180,3.8,3.8,39,0.00,CLR,,0.00,WeatherDisplay:10.37,2013-07-10 06:54:00,
2013-07-10 02:55:00,71.2,45.0,29.69,South,180,3.8,0.0,39,0.00,CLR,,0.00,WeatherDisplay:10.37,2013-07-10 06:55:00,
2013-07-10 02:59:00,71.2,45.0,29.69,West,270,3.8,3.8,39,0.00,CLR,,0.00,WeatherDisplay:10.37,2013-07-10 06:59:00,
2013-07-10 03:00:00,71.2,45.0,29.74,South,180,3.8,3.8,39,0.00,CLR,,0.00,WeatherDisplay:10.37,2013-07-10 07:00:00,
2013-07-10 03:01:00,71.2,45.0,29.74,South,180,3.8,0.0,39,0.00,CLR,,0.00,WeatherDisplay:10.37,2013-07-10 07:01:00,
2013-07-10 03:02:00,71.2,45.0,29.69,South,180,3.8,0.0,39,0.00,CLR,,0.00,WeatherDisplay:10.37,2013-07-10 07:02:00,
2013-07-10 03:03:00,71.2,45.0,29.63,South,180,3.8,0.0,39,0.00,CLR,,0.00,WeatherDisplay:10.37,2013-07-10 07:03:00,
2013-07-10 03:07:00,71.2,45.0,29.71,SW,225,3.8,3.8,39,0.00,CLR,,0.00,WeatherDisplay:10.37,2013-07-10 07:07:00,
2013-07-10 03:08:00,71.2,45.0,29.69,SW,225,3.8,3.8,39,0.00,CLR,,0.00,WeatherDisplay:10.37,2013-07-10 07:08:00,
2013-07-10 03:09:00,71.2,45.0,29.74,SW,225,3.8,3.8,39,0.00,CLR,,0.00,WeatherDisplay:10.37,2013-07-10 07:09:00,
2013-07-10 03:10:00,71.2,45.0,29.74,SW,225,3.8,3.8,39,0.00,CLR,,0.00,WeatherDisplay:10.37,2013-07-10 07:10:00,
2013-07-10 03:13:00,71.4,45.2,29.72,South,180,3.8,3.8,39,0.00,CLR,,0.00,WeatherDisplay:10.37,2013-07-10 07:13:00,
2013-07-10 03:15:00,71.4,45.8,29.69,South,180,3.8,3.8,40,0.00,CLR,,0.00,WeatherDisplay:10.37,2013-07-10 07:15:00,
2013-07-10 03:16:00,71.4,45.8,29.69,SW,225,3.8,3.8,40,0.00,CLR,,0.00,WeatherDisplay:10.37,2013-07-10 07:16:00,
2013-07-10 03:18:00,71.4,45.8,29.69,South,180,3.8,3.8,40,0.00,CLR,,0.00,WeatherDisplay:10.37,2013-07-10 07:18:00,
2013-07-10 03:20:00,71.4,45.8,29.74,South,180,3.8,3.8,40,0.00,CLR,,0.00,WeatherDisplay:10.37,2013-07-10 07:20:00,
2013-07-10 03:23:00,71.4,45.8,29.69,WSW,247,3.8,3.8,40,0.00,CLR,,0.00,WeatherDisplay:10.37,2013-07-10 07:23:00,
2013-07-10 03:24:00,71.4,45.8,29.74,ESE,112,3.8,3.8,40,0.00,CLR,,0.00,WeatherDisplay:10.37,2013-07-10 07:24:00,
2013-07-10 03:27:00,71.4,45.8,29.64,SSW,202,3.8,0.0,40,0.00,CLR,,0.00,WeatherDisplay:10.37,2013-07-10 07:27:00,
2013-07-10 03:30:00,71.4,45.8,29.69,SSW,202,3.8,0.0,40,0.00,CLR,,0.00,WeatherDisplay:10.37,2013-07-10 07:30:00,
2013-07-10 03:31:00,71.4,45.8,29.69,West,270,3.8,0.0,40,0.00,CLR,,0.00,WeatherDisplay:10.37,2013-07-10 07:31:00,
2013-07-10 03:35:00,71.4,45.2,29.69,SW,225,3.8,3.8,39,0.00,CLR,,0.00,WeatherDisplay:10.37,2013-07-10 07:35:00,
2013-07-10 03:36:00,71.4,45.2,29.69,SW,225,3.8,3.8,39,0.00,CLR,,0.00,WeatherDisplay:10.37,2013-07-10 07:36:00,
2013-07-10 03:38:00,71.4,45.2,29.71,South,180,3.8,3.8,39,0.00,CLR,,0.00,WeatherDisplay:10.37,2013-07-10 07:38:00,
2013-07-10 03:41:00,71.4,44.5,29.69,South,180,1.3,0.0,38,0.00,CLR,,0.00,WeatherDisplay:10.37,2013-07-10 07:41:00,
2013-07-10 03:42:00,71.4,44.5,29.69,South,180,1.3,1.3,38,0.00,CLR,,0.00,WeatherDisplay:10.37,2013-07-10 07:42:00,
2013-07-10 03:44:00,71.4,44.5,29.73,WSW,247,1.3,2.6,38,0.00,CLR,,0.00,WeatherDisplay:10.37,2013-07-10 07:44:00,
2013-07-10 03:45:00,71.4,44.5,29.69,SSW,202,2.6,2.6,38,0.00,CLR,,0.00,WeatherDisplay:10.37,2013-07-10 07:45:00,
2013-07-10 03:47:00,71.4,44.5,29.71,SE,135,2.6,2.6,38,0.00,CLR,,0.00,WeatherDisplay:10.37,2013-07-10 07:47:00,
2013-07-10 03:49:00,71.4,44.5,29.63,South,180,2.6,0.0,38,0.00,CLR,,0.00,WeatherDisplay:10.37,2013-07-10 07:49:00,
2013-07-10 03:50:00,71.4,44.5,29.63,South,180,2.6,0.0,38,0.00,CLR,,0.00,WeatherDisplay:10.37,2013-07-10 07:50:00,
2013-07-10 03:51:00,71.4,44.5,29.72,SSE,157,2.6,0.0,38,0.00,CLR,,0.00,WeatherDisplay:10.37,2013-07-10 07:51:00,
2013-07-10 03:52:00,71.4,44.5,29.72,SSE,157,2.6,2.6,38,0.00,CLR,,0.00,WeatherDisplay:10.37,2013-07-10 07:52:00,
2013-07-10 03:55:00,71.6,45.3,29.73,SSW,202,2.6,2.6,39,0.00,CLR,,0.00,WeatherDisplay:10.37,2013-07-10 07:55:00,
2013-07-10 03:57:00,71.6,45.3,29.63,SW,225,2.6,0.0,39,0.00,CLR,,0.00,WeatherDisplay:10.37,2013-07-10 07:57:00,
2013-07-10 03:58:00,71.6,45.3,29.63,SW,225,2.6,2.6,39,0.00,CLR,,0.00,WeatherDisplay:10.37,2013-07-10 07:58:00,
2013-07-10 04:00:00,71.6,46.0,29.73,SSW,202,2.6,2.6,40,0.00,CLR,,0.00,WeatherDisplay:10.37,2013-07-10 08:00:00,
2013-07-10 04:02:00,71.6,46.0,29.72,SE,135,2.6,2.6,40,0.00,CLR,,0.00,WeatherDisplay:10.37,2013-07-10 08:02:00,
2013-07-10 04:03:00,71.6,46.0,29.68,South,180,2.6,2.6,40,0.00,CLR,,0.00,WeatherDisplay:10.37,2013-07-10 08:03:00,
2013-07-10 04:05:00,71.8,46.2,29.63,SSE,157,2.6,0.0,40,0.00,CLR,,0.00,WeatherDisplay:10.37,2013-07-10 08:05:00,
2013-07-10 04:06:00,71.8,46.2,29.63,SSE,157,2.6,0.0,40,0.00,CLR,,0.00,WeatherDisplay:10.37,2013-07-10 08:06:00,
2013-07-10 04:09:00,71.8,45.5,29.72,SSE,157,2.6,0.0,39,0.00,CLR,,0.00,WeatherDisplay:10.37,2013-07-10 08:09:00,
2013-07-10 04:10:00,71.8,45.5,29.72,SSE,157,2.6,0.0,39,0.00,CLR,,0.00,WeatherDisplay:10.37,2013-07-10 08:10:00,
2013-07-10 04:13:00,71.8,46.2,29.63,ENE,67,2.6,0.0,40,0.00,CLR,,0.00,WeatherDisplay:10.37,2013-07-10 08:13:00,
2013-07-10 04:15:00,71.8,46.2,29.68,East,90,2.6,0.0,40,0.00,CLR,,0.00,WeatherDisplay:10.37,2013-07-10 08:15:00,
2013-07-10 04:16:00,71.8,46.2,29.68,East,90,2.6,0.0,40,0.00,CLR,,0.00,WeatherDisplay:10.37,2013-07-10 08:16:00,
2013-07-10 04:18:00,71.8,46.2,29.64,SSW,202,2.6,2.6,40,0.00,CLR,,0.00,WeatherDisplay:10.37,2013-07-10 08:18:00,
2013-07-10 04:20:00,71.8,45.5,29.63,South,180,2.6,2.6,39,0.00,CLR,,0.00,WeatherDisplay:10.37,2013-07-10 08:20:00,
2013-07-10 04:21:00,71.8,45.5,29.69,WSW,247,2.6,2.6,39,0.00,CLR,,0.00,WeatherDisplay:10.37,2013-07-10 08:21:00,
2013-07-10 04:25:00,71.8,45.5,29.69,SE,135,2.6,0.0,39,0.00,CLR,,0.00,WeatherDisplay:10.37,2013-07-10 08:25:00,
2013-07-10 04:27:00,72.0,45.6,29.73,ESE,112,2.6,2.6,39,0.00,CLR,,0.00,WeatherDisplay:10.37,2013-07-10 08:27:00,
2013-07-10 04:28:00,72.0,45.6,29.73,ESE,112,2.6,2.6,39,0.00,CLR,,0.00,WeatherDisplay:10.37,2013-07-10 08:28:00,
2013-07-10 04:31:00,72.0,45.6,29.69,South,180,2.6,0.0,39,0.00,CLR,,0.00,WeatherDisplay:10.37,2013-07-10 08:31:00,
2013-07-10 04:33:00,72.0,45.6,29.71,WSW,247,2.6,2.6,39,0.00,CLR,,0.00,WeatherDisplay:10.37,2013-07-10 08:33:00,
2013-07-10 04:34:00,72.1,45.8,29.69,WNW,292,2.6,2.6,39,0.00,CLR,,0.00,WeatherDisplay:10.37,2013-07-10 08:34:00,
2013-07-10 04:36:00,72.1,45.8,29.74,West,270,2.6,2.6,39,0.00,CLR,,0.00,WeatherDisplay:10.37,2013-07-10 08:36:00,
2013-07-10 04:38:00,72.1,45.8,29.74,South,180,2.3,2.3,39,0.00,CLR,,0.00,WeatherDisplay:10.37,2013-07-10 08:38:00,
2013-07-10 04:40:00,72.1,45.8,29.71,South,180,1.3,1.3,39,0.00,CLR,,0.00,WeatherDisplay:10.37,2013-07-10 08:40:00,
2013-07-10 04:42:00,72.3,46.0,29.63,SW,225,1.3,1.3,39,0.00,CLR,,0.00,WeatherDisplay:10.37,2013-07-10 08:42:00,
2013-07-10 04:43:00,72.3,46.0,29.63,SW,225,1.3,1.3,39,0.00,CLR,,0.00,WeatherDisplay:10.37,2013-07-10 08:43:00,
2013-07-10 04:44:00,72.3,46.0,29.64,SSW,202,1.3,1.3,39,0.00,CLR,,0.00,WeatherDisplay:10.37,2013-07-10 08:44:00,
2013-07-10 04:45:00,72.3,46.0,29.64,SSW,202,1.3,0.0,39,0.00,CLR,,0.00,WeatherDisplay:10.37,2013-07-10 08:45:00,
2013-07-10 04:47:00,72.3,46.0,29.69,NNE,22,1.3,1.7,39,0.00,CLR,,0.00,WeatherDisplay:10.37,2013-07-10 08:47:00,
2013-07-10 04:49:00,72.5,46.1,29.69,NE,45,1.7,0.0,39,0.00,CLR,,0.00,WeatherDisplay:10.37,2013-07-10 08:49:00,
2013-07-10 04:50:00,72.5,46.1,29.64,South,180,1.7,0.0,39,0.00,CLR,,0.00,WeatherDisplay:10.37,2013-07-10 08:50:00,
2013-07-10 04:52:00,72.5,46.1,29.69,South,180,1.7,1.7,39,0.00,CLR,,0.00,WeatherDisplay:10.37,2013-07-10 08:52:00,
2013-07-10 04:54:00,72.5,46.1,29.69,ENE,67,1.7,1.7,39,0.00,CLR,,0.00,WeatherDisplay:10.37,2013-07-10 08:54:00,
2013-07-10 04:57:00,72.5,46.1,29.63,NNW,337,1.7,0.0,39,0.00,CLR,,0.00,WeatherDisplay:10.37,2013-07-10 08:57:00,
2013-07-10 04:58:00,72.5,46.1,29.71,SSE,157,1.7,0.0,39,0.00,CLR,,0.00,WeatherDisplay:10.37,2013-07-10 08:58:00,
2013-07-10 04:59:00,72.5,46.1,29.71,SSE,157,1.7,1.7,39,0.00,CLR,,0.00,WeatherDisplay:10.37,2013-07-10 08:59:00,
2013-07-10 05:00:00,72.7,47.0,29.69,SE,135,1.7,1.7,40,0.00,CLR,,0.00,WeatherDisplay:10.37,2013-07-10 09:00:00,
2013-07-10 05:03:00,72.7,47.0,29.69,SSW,202,1.7,1.7,40,0.00,CLR,,0.00,WeatherDisplay:10.37,2013-07-10 09:03:00,
2013-07-10 05:04:00,72.7,46.3,29.74,SW,225,1.7,1.7,39,0.00,CLR,,0.00,WeatherDisplay:10.37,2013-07-10 09:04:00,
2013-07-10 05:05:00,72.7,46.3,29.74,SW,225,1.7,2.0,39,0.00,CLR,,0.00,WeatherDisplay:10.37,2013-07-10 09:05:00,
2013-07-10 05:06:00,72.7,46.3,29.69,WSW,247,2.3,2.3,39,0.00,CLR,,0.00,WeatherDisplay:10.37,2013-07-10 09:06:00,
2013-07-10 05:07:00,72.7,46.3,29.69,WSW,247,2.3,2.3,39,0.00,CLR,,0.00,WeatherDisplay:10.37,2013-07-10 09:07:00,
2013-07-10 05:08:00,72.7,46.3,29.74,SW,225,2.3,2.3,39,0.00,CLR,,0.00,WeatherDisplay:10.37,2013-07-10 09:08:00,
2013-07-10 05:11:00,72.7,46.3,29.64,North,0,2.3,2.3,39,0.00,CLR,,0.00,WeatherDisplay:10.37,2013-07-10 09:11:00,
2013-07-10 05:13:00,72.7,45.6,29.74,ESE,112,2.3,0.0,38,0.00,CLR,,0.00,WeatherDisplay:10.37,2013-07-10 09:13:00,
2013-07-10 05:14:00,72.9,45.8,29.73,NW,315,2.3,0.0,38,0.00,CLR,,0.00,WeatherDisplay:10.37,2013-07-10 09:14:00,
2013-07-10 05:15:00,72.9,45.8,29.73,NW,315,2.3,2.3,38,0.00,CLR,,0.00,WeatherDisplay:10.37,2013-07-10 09:15:00,
2013-07-10 05:18:00,72.7,45.6,29.69,WSW,247,3.5,3.5,38,0.00,CLR,,0.00,WeatherDisplay:10.37,2013-07-10 09:18:00,
2013-07-10 05:20:00,72.7,45.6,29.69,SSE,157,3.5,3.5,38,0.00,CLR,,0.00,WeatherDisplay:10.37,2013-07-10 09:20:00,
2013-07-10 05:21:00,72.7,45.6,29.69,SSE,157,3.5,0.0,38,0.00,CLR,,0.00,WeatherDisplay:10.37,2013-07-10 09:21:00,
2013-07-10 05:23:00,72.9,45.8,29.69,SW,225,3.5,3.5,38,0.00,CLR,,0.00,WeatherDisplay:10.37,2013-07-10 09:23:00,
2013-07-10 05:24:00,72.9,45.8,29.74,ENE,67,3.5,3.5,38,0.00,CLR,,0.00,WeatherDisplay:10.37,2013-07-10 09:24:00,
2013-07-10 05:26:00,72.9,46.4,29.74,NNW,337,3.5,3.5,39,0.00,CLR,,0.00,WeatherDisplay:10.37,2013-07-10 09:26:00,
2013-07-10 05:28:00,72.7,46.3,29.69,SSE,157,3.5,3.5,39,0.00,CLR,,0.00,WeatherDisplay:10.37,2013-07-10 09:28:00,
2013-07-10 05:31:00,72.9,46.4,29.69,South,180,3.5,3.5,39,0.00,CLR,,0.00,WeatherDisplay:10.37,2013-07-10 09:31:00,
2013-07-10 05:33:00,72.9,46.4,29.71,NE,45,3.5,3.5,39,0.00,CLR,,0.00,WeatherDisplay:10.37,2013-07-10 09:33:00,
2013-07-10 05:34:00,72.9,46.4,29.75,SSW,202,3.5,3.5,39,0.00,CLR,,0.00,WeatherDisplay:10.37,2013-07-10 09:34:00,
2013-07-10 05:38:00,72.7,46.3,29.66,West,270,3.5,3.5,39,0.00,CLR,,0.00,WeatherDisplay:10.37,2013-07-10 09:38:00,
2013-07-10 05:39:00,72.7,46.3,29.66,West,270,2.8,0.0,39,0.00,CLR,,0.00,WeatherDisplay:10.37,2013-07-10 09:39:00,
2013-07-10 05:40:00,72.7,46.3,29.74,North,0,2.8,0.0,39,0.00,CLR,,0.00,WeatherDisplay:10.37,2013-07-10 09:40:00,
2013-07-10 05:42:00,72.7,45.6,29.69,WSW,247,2.8,2.8,38,0.00,CLR,,0.00,WeatherDisplay:10.37,2013-07-10 09:42:00,
2013-07-10 05:44:00,72.7,45.6,29.69,West,270,2.8,2.8,38,0.00,CLR,,0.00,WeatherDisplay:10.37,2013-07-10 09:44:00,
2013-07-10 05:46:00,72.7,45.6,29.74,WSW,247,2.8,2.8,38,0.00,CLR,,0.00,WeatherDisplay:10.37,2013-07-10 09:46:00,
2013-07-10 05:47:00,72.7,45.6,29.74,WSW,247,2.8,2.8,38,0.00,CLR,,0.00,WeatherDisplay:10.37,2013-07-10 09:47:00,
2013-07-10 05:48:00,72.7,45.6,29.74,WNW,292,2.8,2.8,38,0.00,CLR,,0.00,WeatherDisplay:10.37,2013-07-10 09:48:00,
2013-07-10 05:50:00,72.7,45.6,29.75,WNW,292,2.8,2.8,38,0.00,CLR,,0.00,WeatherDisplay:10.37,2013-07-10 09:50:00,
2013-07-10 05:52:00,72.7,45.6,29.69,NW,315,2.8,2.8,38,0.00,CLR,,0.00,WeatherDisplay:10.37,2013-07-10 09:52:00,
2013-07-10 05:55:00,72.7,45.6,29.71,ESE,112,2.8,2.8,38,0.00,CLR,,0.00,WeatherDisplay:10.37,2013-07-10 09:55:00,
2013-07-10 05:56:00,72.7,46.3,29.71,SSW,202,2.8,2.8,39,0.00,CLR,,0.00,WeatherDisplay:10.37,2013-07-10 09:56:00,
2013-07-10 05:58:00,72.7,46.3,29.73,NNW,337,2.8,0.0,39,0.00,CLR,,0.00,WeatherDisplay:10.37,2013-07-10 09:58:00,
2013-07-10 06:00:00,72.7,46.3,29.74,ESE,112,2.8,2.8,39,0.00,CLR,,0.00,WeatherDisplay:10.37,2013-07-10 10:00:00,
2013-07-10 06:01:00,72.7,46.3,29.74,ESE,112,2.8,0.0,39,0.00,CLR,,0.00,WeatherDisplay:10.37,2013-07-10 10:01:00,
2013-07-10 06:02:00,72.5,46.1,29.71,ENE,67,2.8,0.0,39,0.00,CLR,,0.00,WeatherDisplay:10.37,2013-07-10 10:02:00,
2013-07-10 06:04:00,72.5,45.4,29.75,NE,45,2.8,0.0,38,0.00,CLR,,0.00,WeatherDisplay:10.37,2013-07-10 10:04:00,
2013-07-10 06:05:00,72.5,45.4,29.71,NE,45,2.8,0.0,38,0.00,CLR,,0.00,WeatherDisplay:10.37,2013-07-10 10:05:00,
2013-07-10 06:06:00,72.5,45.4,29.71,NE,45,2.8,2.8,38,0.00,CLR,,0.00,WeatherDisplay:10.37,2013-07-10 10:06:00,
2013-07-10 06:07:00,72.5,46.1,29.75,South,180,2.8,2.8,39,0.00,CLR,,0.00,WeatherDisplay:10.37,2013-07-10 10:07:00,
2013-07-10 06:09:00,72.5,46.1,29.71,East,90,2.8,2.8,39,0.00,CLR,,0.00,WeatherDisplay:10.37,2013-07-10 10:09:00,
2013-07-10 06:12:00,72.5,46.1,29.71,East,90,2.8,2.8,39,0.00,CLR,,0.00,WeatherDisplay:10.37,2013-07-10 10:12:00,
2013-07-10 06:15:00,72.5,46.1,29.71,NNW,337,2.8,2.8,39,0.00,CLR,,0.00,WeatherDisplay:10.37,2013-07-10 10:15:00,
2013-07-10 06:16:00,72.5,46.1,29.71,NW,315,2.8,2.8,39,0.00,CLR,,0.00,WeatherDisplay:10.37,2013-07-10 10:16:00,
2013-07-10 06:17:00,72.5,46.1,29.71,WNW,292,2.8,2.8,39,0.00,CLR,,0.00,WeatherDisplay:10.37,2013-07-10 10:17:00,
2013-07-10 06:20:00,72.5,46.8,29.75,SSW,202,2.8,2.8,40,0.00,CLR,,0.00,WeatherDisplay:10.37,2013-07-10 10:20:00,
2013-07-10 06:21:00,72.5,46.8,29.75,SSW,202,2.8,0.0,40,0.00,CLR,,0.00,WeatherDisplay:10.37,2013-07-10 10:21:00,
2013-07-10 06:22:00,72.5,46.1,29.65,SSE,157,2.8,0.0,39,0.00,CLR,,0.00,WeatherDisplay:10.37,2013-07-10 10:22:00,
2013-07-10 06:23:00,72.5,46.1,29.66,West,270,2.8,0.0,39,0.00,CLR,,0.00,WeatherDisplay:10.37,2013-07-10 10:23:00,
2013-07-10 06:25:00,72.5,46.1,29.71,SW,225,2.8,2.8,39,0.00,CLR,,0.00,WeatherDisplay:10.37,2013-07-10 10:25:00,
2013-07-10 06:27:00,72.5,46.1,29.71,SW,225,2.8,2.8,39,0.00,CLR,,0.00,WeatherDisplay:10.37,2013-07-10 10:27:00,
2013-07-10 06:29:00,72.5,46.1,29.75,SW,225,2.8,2.8,39,0.00,CLR,,0.00,WeatherDisplay:10.37,2013-07-10 10:29:00,
2013-07-10 06:30:00,72.5,46.1,29.75,SW,225,2.8,2.8,39,0.00,CLR,,0.00,WeatherDisplay:10.37,2013-07-10 10:30:00,
2013-07-10 06:33:00,72.5,46.1,29.72,West,270,2.8,2.8,39,0.00,CLR,,0.00,WeatherDisplay:10.37,2013-07-10 10:33:00,
2013-07-10 06:35:00,72.5,46.1,29.73,West,270,2.8,2.8,39,0.00,CLR,,0.00,WeatherDisplay:10.37,2013-07-10 10:35:00,
2013-07-10 06:36:00,72.5,46.1,29.71,NW,315,3.5,3.5,39,0.00,CLR,,0.00,WeatherDisplay:10.37,2013-07-10 10:36:00,
2013-07-10 06:38:00,72.5,46.1,29.71,West,270,3.5,0.0,39,0.00,CLR,,0.00,WeatherDisplay:10.37,2013-07-10 10:38:00,
2013-07-10 06:40:00,72.5,46.1,29.73,ENE,67,1.2,0.0,39,0.00,CLR,,0.00,WeatherDisplay:10.37,2013-07-10 10:40:00,
2013-07-10 06:41:00,72.5,46.1,29.73,ENE,67,1.2,1.2,39,0.00,CLR,,0.00,WeatherDisplay:10.37,2013-07-10 10:41:00,
2013-07-10 06:42:00,72.5,46.1,29.75,West,270,2.3,2.3,39,0.00,CLR,,0.00,WeatherDisplay:10.37,2013-07-10 10:42:00,
2013-07-10 06:46:00,72.5,45.4,29.75,WSW,247,2.3,2.3,38,0.00,CLR,,0.00,WeatherDisplay:10.37,2013-07-10 10:46:00,
2013-07-10 06:47:00,72.5,45.4,29.75,WSW,247,2.3,2.3,38,0.00,CLR,,0.00,WeatherDisplay:10.37,2013-07-10 10:47:00,
2013-07-10 06:48:00,72.5,45.4,29.75,NE,45,2.3,2.3,38,0.00,CLR,,0.00,WeatherDisplay:10.37,2013-07-10 10:48:00,
2013-07-10 06:51:00,72.5,45.4,29.75,NNE,22,2.4,2.4,38,0.00,CLR,,0.00,WeatherDisplay:10.37,2013-07-10 10:51:00,
2013-07-10 06:52:00,72.5,45.4,29.72,NNE,22,2.4,2.4,38,0.00,CLR,,0.00,WeatherDisplay:10.37,2013-07-10 10:52:00,
2013-07-10 06:53:00,72.5,45.4,29.72,NNE,22,2.4,2.4,38,0.00,CLR,,0.00,WeatherDisplay:10.37,2013-07-10 10:53:00,
2013-07-10 06:54:00,72.5,46.1,29.67,WNW,292,2.4,2.4,39,0.00,CLR,,0.00,WeatherDisplay:10.37,2013-07-10 10:54:00,
2013-07-10 06:56:00,72.5,46.1,29.72,WNW,292,2.4,2.4,39,0.00,CLR,,0.00,WeatherDisplay:10.37,2013-07-10 10:56:00,
2013-07-10 06:57:00,72.5,45.4,29.69,NW,315,2.4,2.4,38,0.00,CLR,,0.00,WeatherDisplay:10.37,2013-07-10 10:57:00,
2013-07-10 06:58:00,72.7,45.6,29.72,NNW,337,2.6,2.6,38,0.00,CLR,,0.00,WeatherDisplay:10.37,2013-07-10 10:58:00,
2013-07-10 06:59:00,72.7,45.6,29.72,NNW,337,2.6,2.6,38,0.00,CLR,,0.00,WeatherDisplay:10.37,2013-07-10 10:59:00,
2013-07-10 07:01:00,72.7,45.6,29.75,NNW,337,2.8,2.8,38,0.00,CLR,,0.00,WeatherDisplay:10.37,2013-07-10 11:01:00,
2013-07-10 07:04:00,72.9,45.8,29.65,SSW,202,2.8,0.0,38,0.00,CLR,,0.00,WeatherDisplay:10.37,2013-07-10 11:04:00,
2013-07-10 07:05:00,72.9,45.8,29.65,SSW,202,2.8,2.8,38,0.00,CLR,,0.00,WeatherDisplay:10.37,2013-07-10 11:05:00,
2013-07-10 07:06:00,72.9,45.1,29.67,SW,225,2.8,2.8,37,0.00,CLR,,0.00,WeatherDisplay:10.37,2013-07-10 11:06:00,
2013-07-10 07:07:00,72.9,45.1,29.67,SW,225,2.8,2.8,37,0.00,CLR,,0.00,WeatherDisplay:10.37,2013-07-10 11:07:00,
2013-07-10 07:10:00,72.9,45.1,29.69,NNE,22,2.8,2.8,37,0.00,CLR,,0.00,WeatherDisplay:10.37,2013-07-10 11:10:00,
2013-07-10 07:14:00,73.0,45.2,29.69,West,270,2.8,0.0,37,0.00,CLR,,0.00,WeatherDisplay:10.37,2013-07-10 11:14:00,
2013-07-10 07:15:00,73.0,45.2,29.69,West,270,2.8,0.0,37,0.00,CLR,,0.00,WeatherDisplay:10.37,2013-07-10 11:15:00,
2013-07-10 07:16:00,73.0,45.2,29.73,SSE,157,2.8,0.0,37,0.00,CLR,,0.00,WeatherDisplay:10.37,2013-07-10 11:16:00,
2013-07-10 07:20:00,73.2,45.4,29.74,NW,315,2.8,2.8,37,0.00,CLR,,0.00,WeatherDisplay:10.37,2013-07-10 11:20:00,
2013-07-10 07:23:00,73.2,45.4,29.65,WNW,292,2.8,3.3,37,0.00,CLR,,0.00,WeatherDisplay:10.37,2013-07-10 11:23:00,
2013-07-10 07:25:00,73.4,44.8,29.77,WSW,247,3.5,3.5,36,0.00,CLR,,0.00,WeatherDisplay:10.37,2013-07-10 11:25:00,
2013-07-10 07:26:00,73.4,44.8,29.68,NNW,337,3.5,3.5,36,0.00,CLR,,0.00,WeatherDisplay:10.37,2013-07-10 11:26:00,
2013-07-10 07:27:00,73.4,44.8,29.68,NNW,337,3.5,3.5,36,0.00,CLR,,0.00,WeatherDisplay:10.37,2013-07-10 11:27:00,
2013-07-10 07:28:00,73.4,45.5,29.72,ESE,112,3.5,3.5,37,0.00,CLR,,0.00,WeatherDisplay:10.37,2013-07-10 11:28:00,
2013-07-10 07:30:00,73.6,45.7,29.73,NNW,337,3.5,3.5,37,0.00,CLR,,0.00,WeatherDisplay:10.37,2013-07-10 11:30:00,
2013-07-10 07:32:00,73.6,46.4,29.66,ESE,112,3.5,3.5,38,0.00,CLR,,0.00,WeatherDisplay:10.37,2013-07-10 11:32:00,
2013-07-10 07:33:00,73.6,46.4,29.66,ESE,112,3.5,3.5,38,0.00,CLR,,0.00,WeatherDisplay:10.37,2013-07-10 11:33:00,
2013-07-10 07:34:00,73.6,46.4,29.72,NNW,337,3.5,3.5,38,0.00,CLR,,0.00,WeatherDisplay:10.37,2013-07-10 11:34:00,
2013-07-10 07:35:00,73.6,46.4,29.72,NNW,337,3.5,3.5,38,0.00,CLR,,0.00,WeatherDisplay:10.37,2013-07-10 11:35:00,
2013-07-10 07:36:00,73.8,45.9,29.69,WSW,247,3.5,3.5,37,0.00,CLR,,0.00,WeatherDisplay:10.37,2013-07-10 11:36:00,
2013-07-10 07:38:00,73.8,45.9,29.68,WSW,247,3.5,3.5,37,0.00,CLR,,0.00,WeatherDisplay:10.37,2013-07-10 11:38:00,
2013-07-10 07:39:00,73.8,45.9,29.68,WSW,247,2.8,2.8,37,0.00,CLR,,0.00,WeatherDisplay:10.37,2013-07-10 11:39:00,
2013-07-10 07:41:00,73.8,45.9,29.73,SSW,202,2.8,2.8,37,0.00,CLR,,0.00,WeatherDisplay:10.37,2013-07-10 11:41:00,
2013-07-10 07:42:00,73.9,46.0,29.77,West,270,2.8,2.8,37,0.00,CLR,,0.00,WeatherDisplay:10.37,2013-07-10 11:42:00,
2013-07-10 07:43:00,73.9,46.0,29.77,West,270,2.8,2.8,37,0.00,CLR,,0.00,WeatherDisplay:10.37,2013-07-10 11:43:00,
2013-07-10 07:46:00,73.9,46.0,29.73,SW,225,2.8,2.8,37,0.00,CLR,,0.00,WeatherDisplay:10.37,2013-07-10 11:46:00,
2013-07-10 07:47:00,73.9,46.0,29.73,SW,225,2.8,2.8,37,0.00,CLR,,0.00,WeatherDisplay:10.37,2013-07-10 11:47:00,
2013-07-10 07:48:00,73.9,45.3,29.75,West,270,2.8,2.8,36,0.00,CLR,,0.00,WeatherDisplay:10.37,2013-07-10 11:48:00,
2013-07-10 07:51:00,74.1,45.5,29.77,West,270,2.8,2.8,36,0.00,CLR,,0.00,WeatherDisplay:10.37,2013-07-10 11:51:00,
2013-07-10 07:52:00,74.3,45.6,29.67,WNW,292,2.8,2.8,36,0.00,CLR,,0.00,WeatherDisplay:10.37,2013-07-10 11:52:00,
2013-07-10 07:53:00,74.3,45.6,29.67,WNW,292,2.8,2.8,36,0.00,CLR,,0.00,WeatherDisplay:10.37,2013-07-10 11:53:00,
2013-07-10 07:55:00,74.3,45.6,29.68,North,0,2.8,2.8,36,0.00,CLR,,0.00,WeatherDisplay:10.37,2013-07-10 11:55:00,
2013-07-10 07:57:00,74.5,46.5,29.67,NE,45,2.8,2.8,37,0.00,CLR,,0.00,WeatherDisplay:10.37,2013-07-10 11:57:00,
2013-07-10 08:00:00,74.7,47.4,29.77,WNW,292,3.6,3.6,38,0.00,CLR,,0.00,WeatherDisplay:10.37,2013-07-10 12:00:00,
2013-07-10 08:01:00,74.7,47.4,29.77,WNW,292,3.6,3.6,38,0.00,CLR,,0.00,WeatherDisplay:10.37,2013-07-10 12:01:00,
2013-07-10 08:03:00,74.7,47.4,29.77,SSW,202,3.6,3.6,38,0.00,CLR,,0.00,WeatherDisplay:10.37,2013-07-10 12:03:00,
2013-07-10 08:05:00,74.7,47.4,29.77,NNW,337,3.6,3.6,38,0.00,CLR,,0.00,WeatherDisplay:10.37,2013-07-10 12:05:00,
2013-07-10 08:06:00,74.7,46.7,29.74,West,270,3.6,3.6,37,0.00,CLR,,0.00,WeatherDisplay:10.37,2013-07-10 12:06:00,
2013-07-10 08:07:00,74.7,46.7,29.74,West,270,3.6,3.6,37,0.00,CLR,,0.00,WeatherDisplay:10.37,2013-07-10 12:07:00,
2013-07-10 08:08:00,74.7,47.4,29.75,North,0,3.6,3.6,38,0.00,CLR,,0.00,WeatherDisplay:10.37,2013-07-10 12:08:00,
2013-07-10 08:11:00,74.7,47.4,29.72,SW,225,3.6,0.0,38,0.00,CLR,,0.00,WeatherDisplay:10.37,2013-07-10 12:11:00,
2013-07-10 08:12:00,74.8,47.5,29.73,SW,225,3.6,0.0,38,0.00,CLR,,0.00,WeatherDisplay:10.37,2013-07-10 12:12:00,
2013-07-10 08:13:00,74.8,47.5,29.73,SW,225,3.6,3.6,38,0.00,CLR,,0.00,WeatherDisplay:10.37,2013-07-10 12:13:00,
2013-07-10 08:17:00,75.0,47.0,29.75,SW,225,3.6,3.6,37,0.00,CLR,,0.00,WeatherDisplay:10.37,2013-07-10 12:17:00,
2013-07-10 08:18:00,75.0,46.2,29.71,South,180,3.6,3.6,36,0.00,CLR,,0.00,WeatherDisplay:10.37,2013-07-10 12:18:00,
2013-07-10 08:19:00,75.0,46.2,29.71,South,180,3.6,0.0,36,0.00,CLR,,0.00,WeatherDisplay:10.37,2013-07-10 12:19:00,
2013-07-10 08:21:00,75.0,46.2,29.71,North,0,3.6,3.6,36,0.00,CLR,,0.00,WeatherDisplay:10.37,2013-07-10 12:21:00,
2013-07-10 08:24:00,75.4,46.6,29.67,ENE,67,3.6,3.6,36,0.00,CLR,,0.00,WeatherDisplay:10.37,2013-07-10 12:24:00,
2013-07-10 08:26:00,75.4,46.6,29.69,North,0,3.6,3.6,36,0.00,CLR,,0.00,WeatherDisplay:10.37,2013-07-10 12:26:00,
2013-07-10 08:27:00,75.4,46.6,29.69,North,0,3.6,3.6,36,0.00,CLR,,0.00,WeatherDisplay:10.37,2013-07-10 12:27:00,
2013-07-10 08:29:00,75.4,46.6,29.67,SW,225,3.6,0.0,36,0.00,CLR,,0.00,WeatherDisplay:10.37,2013-07-10 12:29:00,
2013-07-10 08:32:00,75.7,46.9,29.69,SSE,157,3.6,3.6,36,0.00,CLR,,0.00,WeatherDisplay:10.37,2013-07-10 12:32:00,
2013-07-10 08:33:00,75.7,46.9,29.69,SSE,157,3.6,3.6,36,0.00,CLR,,0.00,WeatherDisplay:10.37,2013-07-10 12:33:00,
2013-07-10 08:35:00,75.9,47.0,29.67,WNW,292,3.6,3.6,36,0.00,CLR,,0.00,WeatherDisplay:10.37,2013-07-10 12:35:00,
2013-07-10 08:36:00,75.9,47.0,29.68,NNW,337,3.6,3.6,36,0.00,CLR,,0.00,WeatherDisplay:10.37,2013-07-10 12:36:00,
2013-07-10 08:37:00,75.9,47.0,29.68,NNW,337,3.6,3.6,36,0.00,CLR,,0.00,WeatherDisplay:10.37,2013-07-10 12:37:00,
2013-07-10 08:41:00,76.1,47.9,29.66,South,180,2.6,0.0,37,0.00,CLR,,0.00,WeatherDisplay:10.37,2013-07-10 12:41:00,
2013-07-10 08:42:00,76.5,48.2,29.66,South,180,2.6,0.0,37,0.00,CLR,,0.00,WeatherDisplay:10.37,2013-07-10 12:42:00,
2013-07-10 08:44:00,76.6,49.1,29.66,NNE,22,2.6,2.6,38,0.00,CLR,,0.00,WeatherDisplay:10.37,2013-07-10 12:44:00,
2013-07-10 08:45:00,76.6,49.1,29.66,NNE,22,2.6,2.6,38,0.00,CLR,,0.00,WeatherDisplay:10.37,2013-07-10 12:45:00,
2013-07-10 08:47:00,77.0,49.4,29.72,SW,225,2.6,0.0,38,0.00,CLR,,0.00,WeatherDisplay:10.37,2013-07-10 12:47:00,
2013-07-10 08:50:00,77.9,49.5,29.73,NNW,337,2.6,2.6,37,0.00,CLR,,0.00,WeatherDisplay:10.37,2013-07-10 12:50:00,
2013-07-10 08:51:00,77.9,49.5,29.73,NNW,337,2.6,2.6,37,0.00,CLR,,0.00,WeatherDisplay:10.37,2013-07-10 12:51:00,
2013-07-10 08:52:00,78.1,49.7,29.66,South,180,2.6,2.6,37,0.00,CLR,,0.00,WeatherDisplay:10.37,2013-07-10 12:52:00,
2013-07-10 08:53:00,78.1,49.7,29.66,South,180,2.6,0.0,37,0.00,CLR,,0.00,WeatherDisplay:10.37,2013-07-10 12:53:00,
2013-07-10 08:54:00,78.4,49.3,29.69,South,180,2.6,0.0,36,0.00,CLR,,0.00,WeatherDisplay:10.37,2013-07-10 12:54:00,
2013-07-10 08:58:00,79.0,49.0,29.66,SW,225,2.6,2.6,35,0.00,CLR,,0.00,WeatherDisplay:10.37,2013-07-10 12:58:00,
2013-07-10 08:59:00,79.0,49.0,29.66,SW,225,2.6,2.6,35,0.00,CLR,,0.00,WeatherDisplay:10.37,2013-07-10 12:59:00,
2013-07-10 09:00:00,79.5,49.5,29.69,SW,225,2.6,2.6,35,0.00,CLR,,0.00,WeatherDisplay:10.37,2013-07-10 13:00:00,
2013-07-10 09:01:00,79.5,49.5,29.69,SW,225,2.6,2.6,35,0.00,CLR,,0.00,WeatherDisplay:10.37,2013-07-10 13:01:00,
2013-07-10 09:06:00,80.2,50.1,29.67,North,0,2.6,2.6,35,0.00,CLR,,0.00,WeatherDisplay:10.37,2013-07-10 13:06:00,
2013-07-10 09:08:00,80.4,50.3,29.77,ENE,67,2.6,2.6,35,0.00,CLR,,0.00,WeatherDisplay:10.37,2013-07-10 13:08:00,
2013-07-10 09:09:00,80.4,50.3,29.77,ENE,67,2.6,0.0,35,0.00,CLR,,0.00,WeatherDisplay:10.37,2013-07-10 13:09:00,
2013-07-10 09:11:00,80.8,49.8,29.67,South,180,2.6,2.6,34,0.00,CLR,,0.00,WeatherDisplay:10.37,2013-07-10 13:11:00,
2013-07-10 09:13:00,81.1,50.1,29.67,SSE,157,2.6,2.6,34,0.00,CLR,,0.00,WeatherDisplay:10.37,2013-07-10 13:13:00,
2013-07-10 09:14:00,81.3,49.5,29.67,WSW,247,2.6,2.6,33,0.00,CLR,,0.00,WeatherDisplay:10.37,2013-07-10 13:14:00,
2013-07-10 09:16:00,81.5,49.6,29.68,West,270,2.6,2.6,33,0.00,CLR,,0.00,WeatherDisplay:10.37,2013-07-10 13:16:00,
2013-07-10 09:19:00,81.5,49.6,29.68,NE,45,2.6,2.6,33,0.00,CLR,,0.00,WeatherDisplay:10.37,2013-07-10 13:19:00,
2013-07-10 09:20:00,81.7,48.9,29.68,WNW,292,2.6,2.6,32,0.00,CLR,,0.00,WeatherDisplay:10.37,2013-07-10 13:20:00,
2013-07-10 09:21:00,81.7,48.9,29.68,WNW,292,2.6,2.6,32,0.00,CLR,,0.00,WeatherDisplay:10.37,2013-07-10 13:21:00,
2013-07-10 09:25:00,82.2,50.2,29.69,West,270,2.6,2.6,33,0.00,CLR,,0.00,WeatherDisplay:10.37,2013-07-10 13:25:00,
2013-07-10 09:27:00,82.2,50.2,29.69,SW,225,2.6,2.6,33,0.00,CLR,,0.00,WeatherDisplay:10.37,2013-07-10 13:27:00,
2013-07-10 09:28:00,82.0,50.1,29.68,SSW,202,2.6,2.6,33,0.00,CLR,,0.00,WeatherDisplay:10.37,2013-07-10 13:28:00,
2013-07-10 09:30:00,81.9,49.9,29.71,West,270,2.6,0.0,33,0.00,CLR,,0.00,WeatherDisplay:10.37,2013-07-10 13:30:00,
2013-07-10 09:33:00,81.9,50.7,29.68,WSW,247,2.8,2.8,34,0.00,CLR,,0.00,WeatherDisplay:10.37,2013-07-10 13:33:00,
2013-07-10 09:34:00,81.7,50.6,29.68,West,270,3.8,3.8,34,0.00,CLR,,0.00,WeatherDisplay:10.37,2013-07-10 13:34:00,
2013-07-10 09:35:00,81.7,50.6,29.68,West,270,3.8,3.8,34,0.00,CLR,,0.00,WeatherDisplay:10.37,2013-07-10 13:35:00,
2013-07-10 09:37:00,81.3,50.3,29.69,SW,225,3.8,3.8,34,0.00,CLR,,0.00,WeatherDisplay:10.37,2013-07-10 13:37:00,
2013-07-10 09:38:00,81.0,49.9,29.68,NNW,337,3.5,3.5,34,0.00,CLR,,0.00,WeatherDisplay:10.37,2013-07-10 13:38:00,
2013-07-10 09:41:00,81.3,50.3,29.73,WSW,247,2.3,2.3,34,0.00,CLR,,0.00,WeatherDisplay:10.37,2013-07-10 13:41:00,
2013-07-10 09:44:00,82.2,50.2,29.72,NNE,22,2.3,2.3,33,0.00,CLR,,0.00,WeatherDisplay:10.37,2013-07-10 13:44:00,
2013-07-10 09:45:00,82.2,50.2,29.72,NNE,22,2.3,2.3,33,0.00,CLR,,0.00,WeatherDisplay:10.37,2013-07-10 13:45:00,
2013-07-10 09:46:00,82.8,50.7,29.73,SSE,157,2.4,2.4,33,0.00,CLR,,0.00,WeatherDisplay:10.37,2013-07-10 13:46:00,
2013-07-10 09:47:00,82.8,50.7,29.73,SSE,157,2.4,2.4,33,0.00,CLR,,0.00,WeatherDisplay:10.37,2013-07-10 13:47:00,
2013-07-10 09:50:00,82.8,49.9,29.69,South,180,2.4,2.4,32,0.00,CLR,,0.00,WeatherDisplay:10.37,2013-07-10 13:50:00,
2013-07-10 09:53:00,82.4,49.6,29.69,WSW,247,2.4,0.0,32,0.00,CLR,,0.00,WeatherDisplay:10.37,2013-07-10 13:53:00,
2013-07-10 09:55:00,82.9,50.0,29.71,South,180,2.4,2.4,32,0.00,CLR,,0.00,WeatherDisplay:10.37,2013-07-10 13:55:00,
2013-07-10 09:57:00,83.5,51.3,29.69,WNW,292,2.4,2.4,33,0.00,CLR,,0.00,WeatherDisplay:10.37,2013-07-10 13:57:00,
2013-07-10 09:58:00,83.8,52.5,29.73,SW,225,2.4,2.4,34,0.00,CLR,,0.00,WeatherDisplay:10.37,2013-07-10 13:58:00,
2013-07-10 10:02:00,84.2,52.8,29.69,NE,45,2.4,2.4,34,0.00,CLR,,0.00,WeatherDisplay:10.37,2013-07-10 14:02:00,
2013-07-10 10:03:00,84.2,52.8,29.69,NE,45,2.4,2.4,34,0.00,CLR,,0.00,WeatherDisplay:10.37,2013-07-10 14:03:00,
2013-07-10 10:05:00,84.2,52.8,29.68,NE,45,2.4,2.4,34,0.00,CLR,,0.00,WeatherDisplay:10.37,2013-07-10 14:05:00,
2013-07-10 10:07:00,84.6,53.1,29.69,SSW,202,2.4,2.4,34,0.00,CLR,,0.00,WeatherDisplay:10.37,2013-07-10 14:07:00,
2013-07-10 10:09:00,84.7,53.3,29.69,SW,225,2.4,2.4,34,0.00,CLR,,0.00,WeatherDisplay:10.37,2013-07-10 14:09:00,
2013-07-10 10:10:00,84.2,52.8,29.69,West,270,2.4,2.4,34,0.00,CLR,,0.00,WeatherDisplay:10.37,2013-07-10 14:10:00,
2013-07-10 10:11:00,84.2,52.8,29.69,West,270,2.4,2.4,34,0.00,CLR,,0.00,WeatherDisplay:10.37,2013-07-10 14:11:00,
2013-07-10 10:14:00,84.2,52.0,29.72,SW,225,2.4,2.4,33,0.00,CLR,,0.00,WeatherDisplay:10.37,2013-07-10 14:14:00,
2013-07-10 10:16:00,84.2,52.0,29.69,West,270,2.4,2.4,33,0.00,CLR,,0.00,WeatherDisplay:10.37,2013-07-10 14:16:00,
2013-07-10 10:17:00,84.2,52.0,29.69,West,270,2.4,2.4,33,0.00,CLR,,0.00,WeatherDisplay:10.37,2013-07-10 14:17:00,
2013-07-10 10:19:00,84.0,51.8,29.69,NNE,22,2.4,2.4,33,0.00,CLR,,0.00,WeatherDisplay:10.37,2013-07-10 14:19:00,
2013-07-10 10:22:00,84.6,52.3,29.71,East,90,2.4,2.4,33,0.00,CLR,,0.00,WeatherDisplay:10.37,2013-07-10 14:22:00,
2013-07-10 10:23:00,84.6,52.3,29.71,East,90,2.4,2.4,33,0.00,CLR,,0.00,WeatherDisplay:10.37,2013-07-10 14:23:00,
2013-07-10 10:24:00,84.6,51.5,29.69,East,90,2.4,2.4,32,0.00,CLR,,0.00,WeatherDisplay:10.37,2013-07-10 14:24:00,
2013-07-10 10:29:00,84.9,50.9,29.69,WNW,292,2.8,2.8,31,0.00,CLR,,0.00,WeatherDisplay:10.37,2013-07-10 14:29:00,
2013-07-10 10:30:00,85.5,50.5,29.69,North,0,2.8,2.8,30,0.00,CLR,,0.00,WeatherDisplay:10.37,2013-07-10 14:30:00,
2013-07-10 10:31:00,85.5,50.5,29.69,North,0,2.8,2.8,30,0.00,CLR,,0.00,WeatherDisplay:10.37,2013-07-10 14:31:00,
2013-07-10 10:32:00,85.1,51.1,29.69,NNW,337,2.8,2.8,31,0.00,CLR,,0.00,WeatherDisplay:10.37,2013-07-10 14:32:00,
2013-07-10 10:34:00,85.1,50.2,29.69,NW,315,2.8,0.0,30,0.00,CLR,,0.00,WeatherDisplay:10.37,2013-07-10 14:34:00,
2013-07-10 10:35:00,85.1,50.2,29.69,NW,315,2.8,2.8,30,0.00,CLR,,0.00,WeatherDisplay:10.37,2013-07-10 14:35:00,
2013-07-10 10:37:00,85.1,50.2,29.75,ENE,67,2.8,3.3,30,0.00,CLR,,0.00,WeatherDisplay:10.37,2013-07-10 14:37:00,
2013-07-10 10:39:00,84.9,50.0,29.69,SSW,202,3.5,3.5,30,0.00,CLR,,0.00,WeatherDisplay:10.37,2013-07-10 14:39:00,
2013-07-10 10:40:00,84.4,49.6,29.69,SW,225,3.5,3.5,30,0.00,CLR,,0.00,WeatherDisplay:10.37,2013-07-10 14:40:00,
2013-07-10 10:41:00,84.4,49.6,29.69,SW,225,3.5,3.5,30,0.00,CLR,,0.00,WeatherDisplay:10.37,2013-07-10 14:41:00,
2013-07-10 10:42:00,84.2,50.3,29.69,WNW,292,3.5,3.5,31,0.00,CLR,,0.00,WeatherDisplay:10.37,2013-07-10 14:42:00,
2013-07-10 10:46:00,84.9,51.8,29.74,WNW,292,3.5,3.5,32,0.00,CLR,,0.00,WeatherDisplay:10.37,2013-07-10 14:46:00,
2013-07-10 10:47:00,84.9,51.8,29.74,WNW,292,3.5,3.5,32,0.00,CLR,,0.00,WeatherDisplay:10.37,2013-07-10 14:47:00,
2013-07-10 10:51:00,85.1,51.9,29.73,West,270,3.5,3.5,32,0.00,CLR,,0.00,WeatherDisplay:10.37,2013-07-10 14:51:00,
2013-07-10 10:52:00,85.5,52.2,29.69,WSW,247,3.5,3.5,32,0.00,CLR,,0.00,WeatherDisplay:10.37,2013-07-10 14:52:00,
2013-07-10 10:53:00,85.5,52.2,29.69,WSW,247,3.5,3.5,32,0.00,CLR,,0.00,WeatherDisplay:10.37,2013-07-10 14:53:00,
2013-07-10 10:54:00,85.3,52.1,29.68,ENE,67,3.5,3.5,32,0.00,CLR,,0.00,WeatherDisplay:10.37,2013-07-10 14:54:00,
2013-07-10 10:59:00,86.2,52.9,29.72,NE,45,3.5,3.5,32,0.00,CLR,,0.00,WeatherDisplay:10.37,2013-07-10 14:59:00,
2013-07-10 11:00:00,86.9,53.5,29.69,SW,225,3.5,3.5,32,0.00,CLR,,0.00,WeatherDisplay:10.37,2013-07-10 15:00:00,
2013-07-10 11:02:00,87.4,54.8,29.68,North,0,3.5,3.5,33,0.00,CLR,,0.00,WeatherDisplay:10.37,2013-07-10 15:02:00,
2013-07-10 11:03:00,87.4,54.8,29.68,North,0,3.5,3.5,33,0.00,CLR,,0.00,WeatherDisplay:10.37,2013-07-10 15:03:00,
2013-07-10 11:06:00,87.8,55.1,29.72,SW,225,3.5,3.5,33,0.00,CLR,,0.00,WeatherDisplay:10.37,2013-07-10 15:06:00,
2013-07-10 11:07:00,87.8,55.1,29.72,SW,225,3.5,3.5,33,0.00,CLR,,0.00,WeatherDisplay:10.37,2013-07-10 15:07:00,
2013-07-10 11:09:00,86.9,55.2,29.67,WNW,292,3.5,3.5,34,0.00,CLR,,0.00,WeatherDisplay:10.37,2013-07-10 15:09:00,
2013-07-10 11:12:00,86.4,53.9,29.71,West,270,3.5,0.0,33,0.00,CLR,,0.00,WeatherDisplay:10.37,2013-07-10 15:12:00,
2013-07-10 11:13:00,86.4,53.9,29.71,West,270,3.5,3.5,33,0.00,CLR,,0.00,WeatherDisplay:10.37,2013-07-10 15:13:00,
2013-07-10 11:14:00,85.8,53.4,29.66,North,0,3.5,3.5,33,0.00,CLR,,0.00,WeatherDisplay:10.37,2013-07-10 15:14:00,
2013-07-10 11:19:00,85.3,52.9,29.71,SW,225,3.5,3.5,33,0.00,CLR,,0.00,WeatherDisplay:10.37,2013-07-10 15:19:00,
2013-07-10 11:20:00,84.7,52.4,29.68,North,0,3.5,3.5,33,0.00,CLR,,0.00,WeatherDisplay:10.37,2013-07-10 15:20:00,
2013-07-10 11:21:00,84.7,52.4,29.68,North,0,3.5,4.0,33,0.00,CLR,,0.00,WeatherDisplay:10.37,2013-07-10 15:21:00,
2013-07-10 11:25:00,84.9,52.6,29.69,West,270,4.0,4.0,33,0.00,CLR,,0.00,WeatherDisplay:10.37,2013-07-10 15:25:00,
2013-07-10 11:26:00,84.6,52.3,29.75,West,270,4.0,4.0,33,0.00,CLR,,0.00,WeatherDisplay:10.37,2013-07-10 15:26:00,
2013-07-10 11:29:00,84.6,53.1,29.67,SW,225,4.0,4.0,34,0.00,CLR,,0.00,WeatherDisplay:10.37,2013-07-10 15:29:00,
2013-07-10 11:31:00,83.7,52.3,29.66,South,180,4.0,4.0,34,0.00,CLR,,0.00,WeatherDisplay:10.37,2013-07-10 15:31:00,
2013-07-10 11:33:00,83.7,52.3,29.66,South,180,4.0,4.0,34,0.00,CLR,,0.00,WeatherDisplay:10.37,2013-07-10 15:33:00,
2013-07-10 11:34:00,84.2,52.8,29.69,SW,225,4.0,4.0,34,0.00,CLR,,0.00,WeatherDisplay:10.37,2013-07-10 15:34:00,
2013-07-10 11:35:00,84.2,52.8,29.69,SW,225,4.0,4.0,34,0.00,CLR,,0.00,WeatherDisplay:10.37,2013-07-10 15:35:00,
2013-07-10 11:38:00,85.5,54.7,29.75,NNW,337,4.0,4.0,35,0.00,CLR,,0.00,WeatherDisplay:10.37,2013-07-10 15:38:00,
2013-07-10 11:39:00,86.2,55.3,29.69,NNE,22,3.5,3.5,35,0.00,CLR,,0.00,WeatherDisplay:10.37,2013-07-10 15:39:00,
2013-07-10 11:40:00,86.2,55.3,29.69,NNE,22,2.6,2.6,35,0.00,CLR,,0.00,WeatherDisplay:10.37,2013-07-10 15:40:00,
2013-07-10 11:41:00,86.9,56.0,29.69,East,90,2.6,2.6,35,0.00,CLR,,0.00,WeatherDisplay:10.37,2013-07-10 15:41:00,
2013-07-10 11:43:00,87.8,55.9,29.65,WSW,247,2.6,2.6,34,0.00,CLR,,0.00,WeatherDisplay:10.37,2013-07-10 15:43:00,
2013-07-10 11:47:00,89.2,56.4,29.75,SW,225,2.8,2.8,33,0.00,CLR,,0.00,WeatherDisplay:10.37,2013-07-10 15:47:00,
2013-07-10 11:49:00,90.0,57.8,29.69,North,0,2.8,2.8,34,0.00,CLR,,0.00,WeatherDisplay:10.37,2013-07-10 15:49:00,
2013-07-10 11:50:00,90.0,57.8,29.69,North,0,2.8,2.8,34,0.00,CLR,,0.00,WeatherDisplay:10.37,2013-07-10 15:50:00,
2013-07-10 11:54:00,90.3,58.1,29.71,SW,225,2.8,2.8,34,0.00,CLR,,0.00,WeatherDisplay:10.37,2013-07-10 15:54:00,
2013-07-10 11:55:00,90.9,59.4,29.65,West,270,3.8,3.8,35,0.00,CLR,,0.00,WeatherDisplay:10.37,2013-07-10 15:55:00,
2013-07-10 11:56:00,90.9,59.4,29.65,West,270,3.8,3.8,35,0.00,CLR,,0.00,WeatherDisplay:10.37,2013-07-10 15:56:00,
2013-07-10 11:59:00,90.7,59.3,29.75,WSW,247,3.8,3.8,35,0.00,CLR,,0.00,WeatherDisplay:10.37,2013-07-10 15:59:00,
2013-07-10 12:00:00,90.7,59.3,29.75,WSW,247,3.8,3.8,35,0.00,CLR,,0.00,WeatherDisplay:10.37,2013-07-10 16:00:00,
2013-07-10 12:05:00,88.7,56.7,29.65,NW,315,3.8,3.8,34,0.00,CLR,,0.00,WeatherDisplay:10.37,2013-07-10 16:05:00,
2013-07-10 12:06:00,88.7,56.7,29.65,NW,315,3.8,3.8,34,0.00,CLR,,0.00,WeatherDisplay:10.37,2013-07-10 16:06:00,
2013-07-10 12:08:00,88.7,55.9,29.66,NNE,22,3.8,3.8,33,0.00,CLR,,0.00,WeatherDisplay:10.37,2013-07-10 16:08:00,
2013-07-10 12:10:00,88.7,55.9,29.67,SE,135,3.8,3.8,33,0.00,CLR,,0.00,WeatherDisplay:10.37,2013-07-10 16:10:00,
2013-07-10 12:13:00,89.1,56.2,29.69,West,270,3.8,3.8,33,0.00,CLR,,0.00,WeatherDisplay:10.37,2013-07-10 16:13:00,
2013-07-10 12:14:00,89.1,56.2,29.69,West,270,3.8,4.5,33,0.00,CLR,,0.00,WeatherDisplay:10.37,2013-07-10 16:14:00,
2013-07-10 12:15:00,88.9,56.1,29.68,ENE,67,4.6,4.6,33,0.00,CLR,,0.00,WeatherDisplay:10.37,2013-07-10 16:15:00,
2013-07-10 12:17:00,88.9,56.1,29.74,SW,225,4.6,4.6,33,0.00,CLR,,0.00,WeatherDisplay:10.37,2013-07-10 16:17:00,
2013-07-10 12:20:00,89.1,56.2,29.75,WSW,247,4.6,4.6,33,0.00,CLR,,0.00,WeatherDisplay:10.37,2013-07-10 16:20:00,
2013-07-10 12:22:00,89.2,56.4,29.65,WSW,247,4.6,4.6,33,0.00,CLR,,0.00,WeatherDisplay:10.37,2013-07-10 16:22:00,
2013-07-10 12:23:00,89.4,56.5,29.71,SE,135,4.6,4.6,33,0.00,CLR,,0.00,WeatherDisplay:10.37,2013-07-10 16:23:00,
2013-07-10 12:25:00,89.8,56.8,29.65,West,270,4.6,4.6,33,0.00,CLR,,0.00,WeatherDisplay:10.37,2013-07-10 16:25:00,
2013-07-10 12:26:00,89.8,56.8,29.65,West,270,4.6,4.6,33,0.00,CLR,,0.00,WeatherDisplay:10.37,2013-07-10 16:26:00,
2013-07-10 12:27:00,89.8,56.8,29.65,NNW,337,4.6,4.6,33,0.00,CLR,,0.00,WeatherDisplay:10.37,2013-07-10 16:27:00,
2013-07-10 12:28:00,89.8,56.8,29.65,NNW,337,4.6,4.6,33,0.00,CLR,,0.00,WeatherDisplay:10.37,2013-07-10 16:28:00,
2013-07-10 12:29:00,89.4,55.7,29.69,NNW,337,4.6,4.6,32,0.00,CLR,,0.00,WeatherDisplay:10.37,2013-07-10 16:29:00,
2013-07-10 12:32:00,89.2,54.6,29.66,NNE,22,4.6,4.6,31,0.00,CLR,,0.00,WeatherDisplay:10.37,2013-07-10 16:32:00,
2013-07-10 12:33:00,89.6,55.0,29.69,WSW,247,4.6,4.6,31,0.00,CLR,,0.00,WeatherDisplay:10.37,2013-07-10 16:33:00,
2013-07-10 12:34:00,89.6,55.0,29.69,WSW,247,4.6,4.6,31,0.00,CLR,,0.00,WeatherDisplay:10.37,2013-07-10 16:34:00,
2013-07-10 12:37:00,89.6,55.0,29.66,WNW,292,4.6,4.6,31,0.00,CLR,,0.00,WeatherDisplay:10.37,2013-07-10 16:37:00,
2013-07-10 12:39:00,89.4,54.8,29.66,NW,315,4.6,4.6,31,0.00,CLR,,0.00,WeatherDisplay:10.37,2013-07-10 16:39:00,
2013-07-10 12:42:00,89.4,54.8,29.69,NW,315,3.6,3.6,31,0.00,CLR,,0.00,WeatherDisplay:10.37,2013-07-10 16:42:00,
2013-07-10 12:44:00,89.6,55.0,29.66,SSW,202,3.6,3.6,31,0.00,CLR,,0.00,WeatherDisplay:10.37,2013-07-10 16:44:00,
2013-07-10 12:46:00,90.0,55.3,29.69,West,270,3.6,3.6,31,0.00,CLR,,0.00,WeatherDisplay:10.37,2013-07-10 16:46:00,
2013-07-10 12:47:00,90.3,55.6,29.69,SSW,202,3.6,3.6,31,0.00,CLR,,0.00,WeatherDisplay:10.37,2013-07-10 16:47:00,
2013-07-10 12:48:00,90.3,55.6,29.69,SSW,202,3.6,3.6,31,0.00,CLR,,0.00,WeatherDisplay:10.37,2013-07-10 16:48:00,
2013-07-10 12:53:00,90.9,56.9,29.75,West,270,4.7,4.7,32,0.00,CLR,,0.00,WeatherDisplay:10.37,2013-07-10 16:53:00,
2013-07-10 12:55:00,91.0,57.1,29.69,West,270,4.7,4.7,32,0.00,CLR,,0.00,WeatherDisplay:10.37,2013-07-10 16:55:00,
2013-07-10 12:57:00,91.0,57.9,29.69,WNW,292,4.7,4.7,33,0.00,CLR,,0.00,WeatherDisplay:10.37,2013-07-10 16:57:00,
2013-07-10 12:58:00,91.0,57.9,29.69,WNW,292,4.7,4.7,33,0.00,CLR,,0.00,WeatherDisplay:10.37,2013-07-10 16:58:00,
2013-07-10 13:02:00,91.8,58.6,29.65,WSW,247,4.7,4.7,33,0.00,CLR,,0.00,WeatherDisplay:10.37,2013-07-10 17:02:00,
2013-07-10 13:03:00,91.9,58.7,29.66,SSW,202,4.7,4.7,33,0.00,CLR,,0.00,WeatherDisplay:10.37,2013-07-10 17:03:00,
2013-07-10 13:04:00,91.9,58.7,29.66,SSW,202,4.7,4.7,33,0.00,CLR,,0.00,WeatherDisplay:10.37,2013-07-10 17:04:00,
2013-07-10 13:06:00,92.1,58.0,29.65,North,0,4.7,4.7,32,0.00,CLR,,0.00,WeatherDisplay:10.37,2013-07-10 17:06:00,
2013-07-10 13:08:00,91.9,57.9,29.65,WSW,247,4.7,4.7,32,0.00,CLR,,0.00,WeatherDisplay:10.37,2013-07-10 17:08:00,
2013-07-10 13:09:00,91.9,57.9,29.65,North,0,4.7,4.7,32,0.00,CLR,,0.00,WeatherDisplay:10.37,2013-07-10 17:09:00,
2013-07-10 13:10:00,91.9,57.9,29.65,North,0,4.7,4.7,32,0.00,CLR,,0.00,WeatherDisplay:10.37,2013-07-10 17:10:00,
2013-07-10 13:12:00,91.2,57.2,29.74,SW,225,4.7,4.7,32,0.00,CLR,,0.00,WeatherDisplay:10.37,2013-07-10 17:12:00,
2013-07-10 13:14:00,89.8,56.0,29.65,NNE,22,4.7,4.7,32,0.00,CLR,,0.00,WeatherDisplay:10.37,2013-07-10 17:14:00,
2013-07-10 13:15:00,89.8,56.0,29.66,NE,45,4.7,4.7,32,0.00,CLR,,0.00,WeatherDisplay:10.37,2013-07-10 17:15:00,
2013-07-10 13:16:00,89.8,56.0,29.66,NE,45,4.7,4.7,32,0.00,CLR,,0.00,WeatherDisplay:10.37,2013-07-10 17:16:00,
2013-07-10 13:17:00,89.8,55.1,29.69,SW,225,4.7,4.7,31,0.00,CLR,,0.00,WeatherDisplay:10.37,2013-07-10 17:17:00,
2013-07-10 13:19:00,89.8,55.1,29.65,ENE,67,4.7,4.7,31,0.00,CLR,,0.00,WeatherDisplay:10.37,2013-07-10 17:19:00,
2013-07-10 13:21:00,89.8,55.1,29.67,ENE,67,4.7,4.7,31,0.00,CLR,,0.00,WeatherDisplay:10.37,2013-07-10 17:21:00,
2013-07-10 13:23:00,91.0,55.3,29.66,NE,45,4.7,4.7,30,0.00,CLR,,0.00,WeatherDisplay:10.37,2013-07-10 17:23:00,
2013-07-10 13:25:00,91.4,54.7,29.68,SW,225,4.7,4.7,29,0.00,CLR,,0.00,WeatherDisplay:10.37,2013-07-10 17:25:00,
2013-07-10 13:26:00,91.4,54.7,29.68,SW,225,4.7,4.7,29,0.00,CLR,,0.00,WeatherDisplay:10.37,2013-07-10 17:26:00,
2013-07-10 13:28:00,91.4,54.7,29.67,North,0,4.7,4.7,29,0.00,CLR,,0.00,WeatherDisplay:10.37,2013-07-10 17:28:00,
2013-07-10 13:30:00,91.8,55.0,29.65,WNW,292,4.7,4.7,29,0.00,CLR,,0.00,WeatherDisplay:10.37,2013-07-10 17:30:00,
2013-07-10 13:32:00,91.2,55.5,29.65,WNW,292,4.7,4.7,30,0.00,CLR,,0.00,WeatherDisplay:10.37,2013-07-10 17:32:00,
2013-07-10 13:35:00,91.0,56.2,29.66,NW,315,4.9,4.9,31,0.00,CLR,,0.00,WeatherDisplay:10.37,2013-07-10 17:35:00,
2013-07-10 13:37:00,90.9,56.0,29.66,NW,315,4.9,4.9,31,0.00,CLR,,0.00,WeatherDisplay:10.37,2013-07-10 17:37:00,
2013-07-10 13:38:00,90.9,56.0,29.66,NW,315,4.9,4.9,31,0.00,CLR,,0.00,WeatherDisplay:10.37,2013-07-10 17:38:00,
2013-07-10 13:40:00,90.5,55.7,29.66,WNW,292,3.6,4.5,31,0.00,CLR,,0.00,WeatherDisplay:10.37,2013-07-10 17:40:00,
2013-07-10 13:42:00,90.9,56.0,29.69,SSW,202,4.6,4.6,31,0.00,CLR,,0.00,WeatherDisplay:10.37,2013-07-10 17:42:00,
2013-07-10 13:47:00,89.8,55.1,29.65,NNW,337,4.6,4.6,31,0.00,CLR,,0.00,WeatherDisplay:10.37,2013-07-10 17:47:00,
2013-07-10 13:49:00,89.8,55.1,29.66,North,0,4.6,4.6,31,0.00,CLR,,0.00,WeatherDisplay:10.37,2013-07-10 17:49:00,
2013-07-10 13:52:00,90.0,55.3,29.65,South,180,4.6,4.6,31,0.00,CLR,,0.00,WeatherDisplay:10.37,2013-07-10 17:52:00,
2013-07-10 13:53:00,90.1,55.4,29.66,South,180,4.6,4.6,31,0.00,CLR,,0.00,WeatherDisplay:10.37,2013-07-10 17:53:00,
2013-07-10 13:55:00,90.1,54.5,29.66,WNW,292,4.6,4.6,30,0.00,CLR,,0.00,WeatherDisplay:10.37,2013-07-10 17:55:00,
2013-07-10 13:57:00,90.9,55.1,29.65,WSW,247,4.6,4.6,30,0.00,CLR,,0.00,WeatherDisplay:10.37,2013-07-10 17:57:00,
2013-07-10 14:01:00,91.2,56.4,29.66,North,0,4.6,4.6,31,0.00,CLR,,0.00,WeatherDisplay:10.37,2013-07-10 18:01:00,
2013-07-10 14:02:00,90.9,56.0,29.67,North,0,4.6,4.6,31,0.00,CLR,,0.00,WeatherDisplay:10.37,2013-07-10 18:02:00,
2013-07-10 14:04:00,90.9,56.0,29.67,SSW,202,4.6,4.6,31,0.00,CLR,,0.00,WeatherDisplay:10.37,2013-07-10 18:04:00,
2013-07-10 14:08:00,90.3,55.6,29.69,East,90,4.6,4.6,31,0.00,CLR,,0.00,WeatherDisplay:10.37,2013-07-10 18:08:00,
2013-07-10 14:10:00,90.3,54.7,29.65,NNW,337,4.6,4.6,30,0.00,CLR,,0.00,WeatherDisplay:10.37,2013-07-10 18:10:00,
2013-07-10 14:11:00,90.1,54.5,29.69,NNW,337,4.6,4.6,30,0.00,CLR,,0.00,WeatherDisplay:10.37,2013-07-10 18:11:00,
2013-07-10 14:12:00,90.1,54.5,29.69,NNW,337,4.6,4.6,30,0.00,CLR,,0.00,WeatherDisplay:10.37,2013-07-10 18:12:00,
2013-07-10 14:13:00,90.1,54.5,29.67,North,0,4.6,4.6,30,0.00,CLR,,0.00,WeatherDisplay:10.37,2013-07-10 18:13:00,
2013-07-10 14:14:00,90.9,55.1,29.66,WNW,292,4.6,4.6,30,0.00,CLR,,0.00,WeatherDisplay:10.37,2013-07-10 18:14:00,
2013-07-10 14:18:00,90.3,54.7,29.65,SW,225,4.6,4.6,30,0.00,CLR,,0.00,WeatherDisplay:10.37,2013-07-10 18:18:00,
2013-07-10 14:19:00,90.3,54.7,29.65,SW,225,4.6,4.6,30,0.00,CLR,,0.00,WeatherDisplay:10.37,2013-07-10 18:19:00,
2013-07-10 14:20:00,90.3,54.7,29.65,West,270,4.6,4.6,30,0.00,CLR,,0.00,WeatherDisplay:10.37,2013-07-10 18:20:00,
2013-07-10 14:21:00,90.3,54.7,29.65,West,270,4.6,4.6,30,0.00,CLR,,0.00,WeatherDisplay:10.37,2013-07-10 18:21:00,
2013-07-10 14:23:00,90.3,53.7,29.65,WNW,292,4.6,5.3,29,0.00,CLR,,0.00,WeatherDisplay:10.37,2013-07-10 18:23:00,
2013-07-10 14:25:00,90.3,53.7,29.68,NW,315,5.8,5.8,29,0.00,CLR,,0.00,WeatherDisplay:10.37,2013-07-10 18:25:00,
2013-07-10 14:26:00,90.3,53.7,29.69,NNW,337,5.8,5.8,29,0.00,CLR,,0.00,WeatherDisplay:10.37,2013-07-10 18:26:00,
2013-07-10 14:27:00,90.5,53.9,29.65,NNW,337,5.8,5.8,29,0.00,CLR,,0.00,WeatherDisplay:10.37,2013-07-10 18:27:00,
2013-07-10 14:28:00,90.5,53.9,29.65,NNW,337,5.8,5.8,29,0.00,CLR,,0.00,WeatherDisplay:10.37,2013-07-10 18:28:00,
2013-07-10 14:33:00,89.8,53.3,29.65,WNW,292,5.8,5.8,29,0.00,CLR,,0.00,WeatherDisplay:10.37,2013-07-10 18:33:00,
2013-07-10 14:34:00,89.8,52.3,29.66,SSW,202,5.8,5.8,28,0.00,CLR,,0.00,WeatherDisplay:10.37,2013-07-10 18:34:00,
2013-07-10 14:35:00,88.9,51.6,29.64,SSW,202,5.8,5.8,28,0.00,CLR,,0.00,WeatherDisplay:10.37,2013-07-10 18:35:00,
2013-07-10 14:38:00,88.5,52.2,29.64,WNW,292,5.8,5.8,29,0.00,CLR,,0.00,WeatherDisplay:10.37,2013-07-10 18:38:00,
2013-07-10 14:41:00,87.8,52.5,29.65,West,270,3.5,3.5,30,0.00,CLR,,0.00,WeatherDisplay:10.37,2013-07-10 18:41:00,
2013-07-10 14:42:00,87.8,52.5,29.65,West,270,3.5,3.5,30,0.00,CLR,,0.00,WeatherDisplay:10.37,2013-07-10 18:42:00,
2013-07-10 14:43:00,87.8,52.5,29.65,SSE,157,3.5,3.5,30,0.00,CLR,,0.00,WeatherDisplay:10.37,2013-07-10 18:43:00,
2013-07-10 14:46:00,87.8,52.5,29.66,NNW,337,3.5,3.5,30,0.00,CLR,,0.00,WeatherDisplay:10.37,2013-07-10 18:46:00,
2013-07-10 14:49:00,89.2,53.7,29.69,SW,225,3.5,3.5,30,0.00,CLR,,0.00,WeatherDisplay:10.37,2013-07-10 18:49:00,
2013-07-10 14:50:00,88.3,53.0,29.65,SW,225,3.5,3.5,30,0.00,CLR,,0.00,WeatherDisplay:10.37,2013-07-10 18:50:00,
2013-07-10 14:52:00,88.3,53.0,29.66,SSW,202,3.5,3.5,30,0.00,CLR,,0.00,WeatherDisplay:10.37,2013-07-10 18:52:00,
2013-07-10 14:53:00,88.3,53.0,29.66,NNW,337,3.5,3.8,30,0.00,CLR,,0.00,WeatherDisplay:10.37,2013-07-10 18:53:00,
2013-07-10 14:55:00,88.3,53.0,29.65,WNW,292,3.8,3.8,30,0.00,CLR,,0.00,WeatherDisplay:10.37,2013-07-10 18:55:00,
2013-07-10 14:57:00,88.7,54.2,29.71,WNW,292,3.8,3.8,31,0.00,CLR,,0.00,WeatherDisplay:10.37,2013-07-10 18:57:00,
2013-07-10 14:59:00,89.1,53.6,29.69,North,0,3.8,3.8,30,0.00,CLR,,0.00,WeatherDisplay:10.37,2013-07-10 18:59:00,
2013-07-10 15:00:00,89.1,53.6,29.66,NW,315,3.8,3.8,30,0.00,CLR,,0.00,WeatherDisplay:10.37,2013-07-10 19:00:00,
2013-07-10 15:02:00,89.1,53.6,29.66,NNE,22,3.8,3.8,30,0.00,CLR,,0.00,WeatherDisplay:10.37,2013-07-10 19:02:00,
2013-07-10 15:03:00,89.1,53.6,29.67,North,0,3.8,3.8,30,0.00,CLR,,0.00,WeatherDisplay:10.37,2013-07-10 19:03:00,
2013-07-10 15:05:00,87.3,52.0,29.66,North,0,4.0,4.0,30,0.00,CLR,,0.00,WeatherDisplay:10.37,2013-07-10 19:05:00,
2013-07-10 15:06:00,87.3,52.9,29.66,NW,315,4.0,4.0,31,0.00,CLR,,0.00,WeatherDisplay:10.37,2013-07-10 19:06:00,
2013-07-10 15:08:00,86.7,52.5,29.66,North,0,4.0,4.0,31,0.00,CLR,,0.00,WeatherDisplay:10.37,2013-07-10 19:08:00,
2013-07-10 15:09:00,86.7,53.3,29.71,NNW,337,4.0,4.0,32,0.00,CLR,,0.00,WeatherDisplay:10.37,2013-07-10 19:09:00,
2013-07-10 15:10:00,86.2,52.9,29.72,NNW,337,4.0,4.0,32,0.00,CLR,,0.00,WeatherDisplay:10.37,2013-07-10 19:10:00,
2013-07-10 15:11:00,86.2,52.9,29.72,NNW,337,4.0,4.0,32,0.00,CLR,,0.00,WeatherDisplay:10.37,2013-07-10 19:11:00,
2013-07-10 15:13:00,86.4,52.2,29.67,ENE,67,4.0,4.0,31,0.00,CLR,,0.00,WeatherDisplay:10.37,2013-07-10 19:13:00,
2013-07-10 15:16:00,87.4,53.1,29.68,South,180,4.0,4.0,31,0.00,CLR,,0.00,WeatherDisplay:10.37,2013-07-10 19:16:00,
2013-07-10 15:18:00,87.4,54.0,29.71,SW,225,4.0,4.0,32,0.00,CLR,,0.00,WeatherDisplay:10.37,2013-07-10 19:18:00,
2013-07-10 15:19:00,87.8,54.3,29.68,SW,225,4.0,4.0,32,0.00,CLR,,0.00,WeatherDisplay:10.37,2013-07-10 19:19:00,
2013-07-10 15:22:00,87.3,54.6,29.69,NNW,337,4.0,4.0,33,0.00,CLR,,0.00,WeatherDisplay:10.37,2013-07-10 19:22:00,
2013-07-10 15:23:00,87.3,54.6,29.69,NNW,337,4.0,4.0,33,0.00,CLR,,0.00,WeatherDisplay:10.37,2013-07-10 19:23:00,
2013-07-10 15:24:00,87.3,54.6,29.67,WSW,247,4.0,4.0,33,0.00,CLR,,0.00,WeatherDisplay:10.37,2013-07-10 19:24:00,
2013-07-10 15:25:00,86.2,53.7,29.67,WSW,247,4.0,4.0,33,0.00,CLR,,0.00,WeatherDisplay:10.37,2013-07-10 19:25:00,
2013-07-10 15:27:00,86.2,53.7,29.66,South,180,4.0,4.0,33,0.00,CLR,,0.00,WeatherDisplay:10.37,2013-07-10 19:27:00,
2013-07-10 15:28:00,86.2,53.7,29.69,NW,315,4.0,4.0,33,0.00,CLR,,0.00,WeatherDisplay:10.37,2013-07-10 19:28:00,
2013-07-10 15:31:00,86.4,54.7,29.67,WSW,247,4.0,4.0,34,0.00,CLR,,0.00,WeatherDisplay:10.37,2013-07-10 19:31:00,
2013-07-10 15:32:00,86.4,54.7,29.67,WSW,247,4.0,4.0,34,0.00,CLR,,0.00,WeatherDisplay:10.37,2013-07-10 19:32:00,
2013-07-10 15:33:00,86.4,54.7,29.69,NW,315,4.0,4.0,34,0.00,CLR,,0.00,WeatherDisplay:10.37,2013-07-10 19:33:00,
2013-07-10 15:35:00,87.3,55.5,29.66,North,0,4.0,4.0,34,0.00,CLR,,0.00,WeatherDisplay:10.37,2013-07-10 19:35:00,
2013-07-10 15:36:00,87.3,55.5,29.67,WSW,247,4.0,4.0,34,0.00,CLR,,0.00,WeatherDisplay:10.37,2013-07-10 19:36:00,
2013-07-10 15:37:00,87.6,55.0,29.69,WSW,247,4.0,4.0,33,0.00,CLR,,0.00,WeatherDisplay:10.37,2013-07-10 19:37:00,
2013-07-10 15:38:00,87.6,55.0,29.69,WSW,247,4.0,4.0,33,0.00,CLR,,0.00,WeatherDisplay:10.37,2013-07-10 19:38:00,
2013-07-10 15:41:00,87.1,54.5,29.75,NNW,337,2.3,5.5,33,0.00,CLR,,0.00,WeatherDisplay:10.37,2013-07-10 19:41:00,
2013-07-10 15:43:00,86.2,52.9,29.71,WNW,292,5.8,5.8,32,0.00,CLR,,0.00,WeatherDisplay:10.37,2013-07-10 19:43:00,
2013-07-10 15:44:00,86.2,52.9,29.71,WNW,292,5.8,5.8,32,0.00,CLR,,0.00,WeatherDisplay:10.37,2013-07-10 19:44:00,
2013-07-10 15:45:00,86.2,53.7,29.67,SW,225,5.8,5.8,33,0.00,CLR,,0.00,WeatherDisplay:10.37,2013-07-10 19:45:00,
2013-07-10 15:48:00,86.4,53.9,29.71,NNW,337,5.8,5.8,33,0.00,CLR,,0.00,WeatherDisplay:10.37,2013-07-10 19:48:00,
2013-07-10 15:49:00,86.9,53.5,29.69,NNW,337,5.8,5.8,32,0.00,CLR,,0.00,WeatherDisplay:10.37,2013-07-10 19:49:00,
2013-07-10 15:50:00,86.9,53.5,29.69,NNW,337,5.8,5.8,32,0.00,CLR,,0.00,WeatherDisplay:10.37,2013-07-10 19:50:00,
2013-07-10 15:52:00,87.1,54.5,29.67,WSW,247,5.8,5.8,33,0.00,CLR,,0.00,WeatherDisplay:10.37,2013-07-10 19:52:00,
2013-07-10 15:53:00,87.1,54.5,29.67,WNW,292,5.8,5.8,33,0.00,CLR,,0.00,WeatherDisplay:10.37,2013-07-10 19:53:00,
2013-07-10 15:54:00,87.1,54.5,29.67,West,270,5.8,5.8,33,0.00,CLR,,0.00,WeatherDisplay:10.37,2013-07-10 19:54:00,
2013-07-10 15:58:00,86.7,54.2,29.66,North,0,5.8,5.8,33,0.00,CLR,,0.00,WeatherDisplay:10.37,2013-07-10 19:58:00,
2013-07-10 15:59:00,86.7,55.0,29.74,WSW,247,5.8,5.8,34,0.00,CLR,,0.00,WeatherDisplay:10.37,2013-07-10 19:59:00,
2013-07-10 16:03:00,85.8,54.2,29.66,ESE,112,5.8,5.8,34,0.00,CLR,,0.00,WeatherDisplay:10.37,2013-07-10 20:03:00,
2013-07-10 16:04:00,85.8,54.2,29.66,ESE,112,5.8,5.8,34,0.00,CLR,,0.00,WeatherDisplay:10.37,2013-07-10 20:04:00,
2013-07-10 16:05:00,85.8,55.0,29.66,SSE,157,5.8,5.8,35,0.00,CLR,,0.00,WeatherDisplay:10.37,2013-07-10 20:05:00,
2013-07-10 16:06:00,84.9,54.2,29.66,SSE,157,5.8,5.8,35,0.00,CLR,,0.00,WeatherDisplay:10.37,2013-07-10 20:06:00,
2013-07-10 16:08:00,84.9,54.2,29.74,West,270,5.8,5.8,35,0.00,CLR,,0.00,WeatherDisplay:10.37,2013-07-10 20:08:00,
2013-07-10 16:09:00,84.7,54.1,29.73,South,180,5.8,5.8,35,0.00,CLR,,0.00,WeatherDisplay:10.37,2013-07-10 20:09:00,
2013-07-10 16:10:00,84.7,54.1,29.73,South,180,5.8,5.8,35,0.00,CLR,,0.00,WeatherDisplay:10.37,2013-07-10 20:10:00,
2013-07-10 16:13:00,84.7,53.3,29.66,South,180,5.8,5.8,34,0.00,CLR,,0.00,WeatherDisplay:10.37,2013-07-10 20:13:00,
2013-07-10 16:15:00,84.4,52.9,29.66,NNW,337,5.8,5.8,34,0.00,CLR,,0.00,WeatherDisplay:10.37,2013-07-10 20:15:00,
2013-07-10 16:16:00,84.4,52.9,29.66,NNW,337,5.8,5.8,34,0.00,CLR,,0.00,WeatherDisplay:10.37,2013-07-10 20:16:00,
2013-07-10 16:17:00,84.4,52.9,29.73,WNW,292,5.8,5.8,34,0.00,CLR,,0.00,WeatherDisplay:10.37,2013-07-10 20:17:00,
2013-07-10 16:21:00,83.7,52.3,29.66,WSW,247,5.8,5.8,34,0.00,CLR,,0.00,WeatherDisplay:10.37,2013-07-10 20:21:00,
2013-07-10 16:22:00,83.7,52.3,29.66,WSW,247,5.8,5.8,34,0.00,CLR,,0.00,WeatherDisplay:10.37,2013-07-10 20:22:00,
2013-07-10 16:23:00,83.7,52.3,29.75,NNW,337,5.8,5.8,34,0.00,CLR,,0.00,WeatherDisplay:10.37,2013-07-10 20:23:00,
2013-07-10 16:25:00,83.7,53.1,29.75,NNW,337,5.8,5.8,35,0.00,CLR,,0.00,WeatherDisplay:10.37,2013-07-10 20:25:00,
2013-07-10 16:26:00,83.7,52.3,29.69,North,0,5.8,5.8,34,0.00,CLR,,0.00,WeatherDisplay:10.37,2013-07-10 20:26:00,
2013-07-10 16:28:00,83.7,52.3,29.66,South,180,5.8,5.8,34,0.00,CLR,,0.00,WeatherDisplay:10.37,2013-07-10 20:28:00,
2013-07-10 16:29:00,83.7,51.5,29.66,NW,315,5.8,5.8,33,0.00,CLR,,0.00,WeatherDisplay:10.37,2013-07-10 20:29:00,
2013-07-10 16:31:00,83.7,51.5,29.66,NW,315,5.8,5.8,33,0.00,CLR,,0.00,WeatherDisplay:10.37,2013-07-10 20:31:00,
2013-07-10 16:32:00,83.7,51.5,29.68,SW,225,5.8,5.8,33,0.00,CLR,,0.00,WeatherDisplay:10.37,2013-07-10 20:32:00,
2013-07-10 16:34:00,83.8,51.7,29.71,West,270,5.8,5.8,33,0.00,CLR,,0.00,WeatherDisplay:10.37,2013-07-10 20:34:00,
2013-07-10 16:37:00,83.8,51.7,29.68,NNE,22,5.8,5.8,33,0.00,CLR,,0.00,WeatherDisplay:10.37,2013-07-10 20:37:00,
2013-07-10 16:38:00,83.8,51.7,29.67,SSW,202,5.8,5.8,33,0.00,CLR,,0.00,WeatherDisplay:10.37,2013-07-10 20:38:00,
2013-07-10 16:40:00,84.2,52.0,29.65,NNE,22,2.3,2.3,33,0.00,CLR,,0.00,WeatherDisplay:10.37,2013-07-10 20:40:00,
2013-07-10 16:42:00,83.5,51.3,29.65,NE,45,2.3,2.3,33,0.00,CLR,,0.00,WeatherDisplay:10.37,2013-07-10 20:42:00,
2013-07-10 16:44:00,83.5,52.2,29.65,ENE,67,2.3,2.3,34,0.00,CLR,,0.00,WeatherDisplay:10.37,2013-07-10 20:44:00,
2013-07-10 16:46:00,83.8,52.5,29.75,West,270,2.3,2.3,34,0.00,CLR,,0.00,WeatherDisplay:10.37,2013-07-10 20:46:00,
2013-07-10 16:47:00,83.8,52.5,29.75,West,270,3.8,3.8,34,0.00,CLR,,0.00,WeatherDisplay:10.37,2013-07-10 20:47:00,
2013-07-10 16:50:00,84.2,52.0,29.66,SW,225,3.8,3.8,33,0.00,CLR,,0.00,WeatherDisplay:10.37,2013-07-10 20:50:00,
2013-07-10 16:51:00,84.2,52.0,29.65,WNW,292,3.8,3.8,33,0.00,CLR,,0.00,WeatherDisplay:10.37,2013-07-10 20:51:00,
2013-07-10 16:53:00,84.0,51.8,29.75,NNW,337,5.1,5.1,33,0.00,CLR,,0.00,WeatherDisplay:10.37,2013-07-10 20:53:00,
2013-07-10 16:55:00,83.7,51.5,29.71,NNW,337,5.1,5.1,33,0.00,CLR,,0.00,WeatherDisplay:10.37,2013-07-10 20:55:00,
2013-07-10 16:57:00,83.7,50.7,29.75,North,0,5.1,5.1,32,0.00,CLR,,0.00,WeatherDisplay:10.37,2013-07-10 20:57:00,
2013-07-10 16:58:00,83.7,50.7,29.73,NE,45,5.1,5.1,32,0.00,CLR,,0.00,WeatherDisplay:10.37,2013-07-10 20:58:00,
2013-07-10 17:00:00,83.7,50.7,29.69,SE,135,5.1,5.1,32,0.00,CLR,,0.00,WeatherDisplay:10.37,2013-07-10 21:00:00,
2013-07-10 17:02:00,83.7,50.7,29.66,SE,135,5.1,5.1,32,0.00,CLR,,0.00,WeatherDisplay:10.37,2013-07-10 21:02:00,
2013-07-10 17:03:00,83.7,50.7,29.71,West,270,5.1,5.1,32,0.00,CLR,,0.00,WeatherDisplay:10.37,2013-07-10 21:03:00,
2013-07-10 17:05:00,83.5,50.5,29.68,NNW,337,5.1,5.1,32,0.00,CLR,,0.00,WeatherDisplay:10.37,2013-07-10 21:05:00,
2013-07-10 17:07:00,83.1,51.0,29.73,NW,315,5.1,5.1,33,0.00,CLR,,0.00,WeatherDisplay:10.37,2013-07-10 21:07:00,
2013-07-10 17:10:00,82.9,50.9,29.71,SSE,157,5.1,5.1,33,0.00,CLR,,0.00,WeatherDisplay:10.37,2013-07-10 21:10:00,
2013-07-10 17:11:00,82.9,50.9,29.71,SSE,157,5.1,5.1,33,0.00,CLR,,0.00,WeatherDisplay:10.37,2013-07-10 21:11:00,
2013-07-10 17:12:00,82.9,51.7,29.69,NNW,337,5.1,5.1,34,0.00,CLR,,0.00,WeatherDisplay:10.37,2013-07-10 21:12:00,
2013-07-10 17:13:00,82.6,51.4,29.74,NNW,337,5.1,5.1,34,0.00,CLR,,0.00,WeatherDisplay:10.37,2013-07-10 21:13:00,
2013-07-10 17:17:00,82.4,51.2,29.66,NNW,337,5.1,5.1,34,0.00,CLR,,0.00,WeatherDisplay:10.37,2013-07-10 21:17:00,
2013-07-10 17:20:00,82.4,51.2,29.71,NNW,337,5.1,5.1,34,0.00,CLR,,0.00,WeatherDisplay:10.37,2013-07-10 21:20:00,
2013-07-10 17:23:00,82.0,50.1,29.71,NE,45,5.1,5.1,33,0.00,CLR,,0.00,WeatherDisplay:10.37,2013-07-10 21:23:00,
2013-07-10 17:25:00,81.5,49.6,29.71,WNW,292,5.1,5.1,33,0.00,CLR,,0.00,WeatherDisplay:10.37,2013-07-10 21:25:00,
2013-07-10 17:26:00,81.5,49.6,29.71,WNW,292,5.1,5.1,33,0.00,CLR,,0.00,WeatherDisplay:10.37,2013-07-10 21:26:00,
2013-07-10 17:29:00,81.3,49.5,29.75,NNW,337,5.1,5.1,33,0.00,CLR,,0.00,WeatherDisplay:10.37,2013-07-10 21:29:00,
2013-07-10 17:31:00,81.1,49.3,29.74,NNW,337,5.1,5.1,33,0.00,CLR,,0.00,WeatherDisplay:10.37,2013-07-10 21:31:00,
2013-07-10 17:33:00,81.1,48.5,29.73,WNW,292,5.1,5.1,32,0.00,CLR,,0.00,WeatherDisplay:10.37,2013-07-10 21:33:00,
2013-07-10 17:36:00,81.0,48.3,29.69,WNW,292,5.1,5.1,32,0.00,CLR,,0.00,WeatherDisplay:10.37,2013-07-10 21:36:00,
2013-07-10 17:37:00,80.8,48.2,29.72,West,270,5.1,5.1,32,0.00,CLR,,0.00,WeatherDisplay:10.37,2013-07-10 21:37:00,
2013-07-10 17:40:00,80.8,48.2,29.66,North,0,2.6,2.6,32,0.00,CLR,,0.00,WeatherDisplay:10.37,2013-07-10 21:40:00,
2013-07-10 17:41:00,80.8,48.2,29.66,North,0,2.6,2.6,32,0.00,CLR,,0.00,WeatherDisplay:10.37,2013-07-10 21:41:00,
2013-07-10 17:42:00,80.8,47.3,29.75,NNW,337,2.6,2.6,31,0.00,CLR,,0.00,WeatherDisplay:10.37,2013-07-10 21:42:00,
2013-07-10 17:43:00,80.6,47.2,29.75,ESE,112,2.6,2.6,31,0.00,CLR,,0.00,WeatherDisplay:10.37,2013-07-10 21:43:00,
2013-07-10 17:44:00,80.6,47.2,29.75,ESE,112,2.6,2.6,31,0.00,CLR,,0.00,WeatherDisplay:10.37,2013-07-10 21:44:00,
2013-07-10 17:46:00,80.4,47.0,29.72,North,0,2.6,2.6,31,0.00,CLR,,0.00,WeatherDisplay:10.37,2013-07-10 21:46:00,
2013-07-10 17:47:00,80.4,47.0,29.72,North,0,2.6,2.6,31,0.00,CLR,,0.00,WeatherDisplay:10.37,2013-07-10 21:47:00,
2013-07-10 17:49:00,80.1,47.5,29.72,NNW,337,2.6,3.1,32,0.00,CLR,,0.00,WeatherDisplay:10.37,2013-07-10 21:49:00,
2013-07-10 17:50:00,80.1,47.5,29.72,NNW,337,3.1,3.1,32,0.00,CLR,,0.00,WeatherDisplay:10.37,2013-07-10 21:50:00,
2013-07-10 17:52:00,79.7,47.2,29.73,SSE,157,3.5,3.5,32,0.00,CLR,,0.00,WeatherDisplay:10.37,2013-07-10 21:52:00,
2013-07-10 17:54:00,79.7,47.2,29.75,North,0,3.5,3.5,32,0.00,CLR,,0.00,WeatherDisplay:10.37,2013-07-10 21:54:00,
2013-07-10 17:56:00,79.7,47.2,29.73,NNW,337,3.5,3.5,32,0.00,CLR,,0.00,WeatherDisplay:10.37,2013-07-10 21:56:00,
2013-07-10 17:59:00,79.9,47.4,29.67,NNW,337,3.5,3.5,32,0.00,CLR,,0.00,WeatherDisplay:10.37,2013-07-10 21:59:00,
2013-07-10 18:00:00,79.9,47.4,29.72,NNW,337,3.5,3.5,32,0.00,CLR,,0.00,WeatherDisplay:10.37,2013-07-10 22:00:00,
2013-07-10 18:01:00,79.7,47.2,29.73,WNW,292,3.5,3.5,32,0.00,CLR,,0.00,WeatherDisplay:10.37,2013-07-10 22:01:00,
2013-07-10 18:02:00,79.7,47.2,29.73,WNW,292,3.5,3.5,32,0.00,CLR,,0.00,WeatherDisplay:10.37,2013-07-10 22:02:00,
2013-07-10 18:07:00,79.3,46.9,29.74,NNW,337,3.5,3.5,32,0.00,CLR,,0.00,WeatherDisplay:10.37,2013-07-10 22:07:00,
2013-07-10 18:08:00,79.3,46.9,29.73,WSW,247,3.5,3.5,32,0.00,CLR,,0.00,WeatherDisplay:10.37,2013-07-10 22:08:00,
2013-07-10 18:09:00,79.3,46.9,29.75,WSW,247,3.5,4.9,32,0.00,CLR,,0.00,WeatherDisplay:10.37,2013-07-10 22:09:00,
2013-07-10 18:12:00,79.0,45.8,29.72,WSW,247,4.9,4.9,31,0.00,CLR,,0.00,WeatherDisplay:10.37,2013-07-10 22:12:00,
2013-07-10 18:13:00,79.0,45.8,29.75,South,180,4.9,4.9,31,0.00,CLR,,0.00,WeatherDisplay:10.37,2013-07-10 22:13:00,
2013-07-10 18:14:00,78.8,45.6,29.72,SSW,202,4.9,4.9,31,0.00,CLR,,0.00,WeatherDisplay:10.37,2013-07-10 22:14:00,
2013-07-10 18:17:00,78.6,46.3,29.73,WSW,247,4.9,4.9,32,0.00,CLR,,0.00,WeatherDisplay:10.37,2013-07-10 22:17:00,
2013-07-10 18:18:00,78.6,46.3,29.73,WSW,247,4.9,4.9,32,0.00,CLR,,0.00,WeatherDisplay:10.37,2013-07-10 22:18:00,
2013-07-10 18:19:00,78.6,46.3,29.75,WSW,247,4.9,4.9,32,0.00,CLR,,0.00,WeatherDisplay:10.37,2013-07-10 22:19:00,
2013-07-10 18:22:00,78.3,46.8,29.73,North,0,4.9,4.9,33,0.00,CLR,,0.00,WeatherDisplay:10.37,2013-07-10 22:22:00,
2013-07-10 18:23:00,77.9,46.5,29.72,North,0,4.9,4.9,33,0.00,CLR,,0.00,WeatherDisplay:10.37,2013-07-10 22:23:00,
2013-07-10 18:24:00,77.9,46.5,29.72,North,0,4.9,4.9,33,0.00,CLR,,0.00,WeatherDisplay:10.37,2013-07-10 22:24:00,
2013-07-10 18:27:00,77.7,46.3,29.74,North,0,4.9,4.9,33,0.00,CLR,,0.00,WeatherDisplay:10.37,2013-07-10 22:27:00,
2013-07-10 18:29:00,77.5,45.3,29.72,WNW,292,4.9,4.9,32,0.00,CLR,,0.00,WeatherDisplay:10.37,2013-07-10 22:29:00,
2013-07-10 18:30:00,77.5,45.3,29.72,WNW,292,4.9,4.9,32,0.00,CLR,,0.00,WeatherDisplay:10.37,2013-07-10 22:30:00,
2013-07-10 18:31:00,77.5,44.5,29.73,SSW,202,4.9,4.9,31,0.00,CLR,,0.00,WeatherDisplay:10.37,2013-07-10 22:31:00,
2013-07-10 18:33:00,77.4,45.2,29.72,NNE,22,4.9,4.9,32,0.00,CLR,,0.00,WeatherDisplay:10.37,2013-07-10 22:33:00,
2013-07-10 18:34:00,77.4,45.2,29.75,NW,315,4.9,4.9,32,0.00,CLR,,0.00,WeatherDisplay:10.37,2013-07-10 22:34:00,
2013-07-10 18:36:00,77.4,45.2,29.74,NW,315,4.9,4.9,32,0.00,CLR,,0.00,WeatherDisplay:10.37,2013-07-10 22:36:00,
2013-07-10 18:39:00,77.2,45.8,29.74,NNW,337,4.6,4.6,33,0.00,CLR,,0.00,WeatherDisplay:10.37,2013-07-10 22:39:00,
2013-07-10 18:41:00,77.2,45.0,29.75,NNW,337,3.5,3.5,32,0.00,CLR,,0.00,WeatherDisplay:10.37,2013-07-10 22:41:00,
2013-07-10 18:42:00,77.2,45.0,29.72,WNW,292,3.5,3.5,32,0.00,CLR,,0.00,WeatherDisplay:10.37,2013-07-10 22:42:00,
2013-07-10 18:44:00,76.8,45.5,29.73,WNW,292,3.5,3.5,33,0.00,CLR,,0.00,WeatherDisplay:10.37,2013-07-10 22:44:00,
2013-07-10 18:45:00,76.8,45.5,29.77,NNW,337,3.5,3.5,33,0.00,CLR,,0.00,WeatherDisplay:10.37,2013-07-10 22:45:00,
2013-07-10 18:46:00,76.8,45.5,29.77,NNW,337,3.5,3.5,33,0.00,CLR,,0.00,WeatherDisplay:10.37,2013-07-10 22:46:00,
2013-07-10 18:49:00,76.6,45.4,29.73,NNW,337,3.6,3.6,33,0.00,CLR,,0.00,WeatherDisplay:10.37,2013-07-10 22:49:00,
2013-07-10 18:51:00,76.6,45.4,29.73,NW,315,3.6,3.6,33,0.00,CLR,,0.00,WeatherDisplay:10.37,2013-07-10 22:51:00,
2013-07-10 18:52:00,76.6,45.4,29.74,NW,315,3.6,3.6,33,0.00,CLR,,0.00,WeatherDisplay:10.37,2013-07-10 22:52:00,
2013-07-10 18:53:00,76.6,45.4,29.74,NW,315,3.6,3.6,33,0.00,CLR,,0.00,WeatherDisplay:10.37,2013-07-10 22:53:00,
2013-07-10 18:56:00,76.3,44.2,29.73,SW,225,3.6,3.6,32,0.00,CLR,,0.00,WeatherDisplay:10.37,2013-07-10 22:56:00,
2013-07-10 19:01:00,75.9,44.7,29.74,SW,225,3.6,3.6,33,0.00,CLR,,0.00,WeatherDisplay:10.37,2013-07-10 23:01:00,
2013-07-10 19:02:00,75.9,44.7,29.74,SW,225,3.6,3.6,33,0.00,CLR,,0.00,WeatherDisplay:10.37,2013-07-10 23:02:00,
2013-07-10 19:03:00,75.9,43.9,29.73,NNW,337,3.6,3.6,32,0.00,CLR,,0.00,WeatherDisplay:10.37,2013-07-10 23:03:00,
2013-07-10 19:08:00,75.7,43.8,29.77,ENE,67,3.6,3.6,32,0.00,CLR,,0.00,WeatherDisplay:10.37,2013-07-10 23:08:00,
2013-07-10 19:09:00,75.7,43.8,29.74,NNE,22,3.6,3.6,32,0.00,CLR,,0.00,WeatherDisplay:10.37,2013-07-10 23:09:00,
2013-07-10 19:11:00,75.6,44.4,29.75,NNE,22,3.6,3.6,33,0.00,CLR,,0.00,WeatherDisplay:10.37,2013-07-10 23:11:00,
2013-07-10 19:14:00,75.6,44.4,29.74,NNE,22,3.6,3.6,33,0.00,CLR,,0.00,WeatherDisplay:10.37,2013-07-10 23:14:00,
2013-07-10 19:15:00,75.6,44.4,29.75,SW,225,3.6,3.6,33,0.00,CLR,,0.00,WeatherDisplay:10.37,2013-07-10 23:15:00,
2013-07-10 19:16:00,75.6,45.2,29.74,SW,225,3.6,3.6,34,0.00,CLR,,0.00,WeatherDisplay:10.37,2013-07-10 23:16:00,
2013-07-10 19:18:00,75.6,44.4,29.75,SSE,157,3.6,3.6,33,0.00,CLR,,0.00,WeatherDisplay:10.37,2013-07-10 23:18:00,
2013-07-10 19:20:00,75.6,44.4,29.74,NE,45,3.6,3.6,33,0.00,CLR,,0.00,WeatherDisplay:10.37,2013-07-10 23:20:00,
2013-07-10 19:21:00,75.6,44.4,29.75,ENE,67,3.6,3.6,33,0.00,CLR,,0.00,WeatherDisplay:10.37,2013-07-10 23:21:00,
2013-07-10 19:23:00,75.6,44.4,29.78,NNE,22,3.6,3.6,33,0.00,CLR,,0.00,WeatherDisplay:10.37,2013-07-10 23:23:00,
2013-07-10 19:26:00,75.4,43.5,29.75,NNW,337,3.6,3.6,32,0.00,CLR,,0.00,WeatherDisplay:10.37,2013-07-10 23:26:00,
2013-07-10 19:29:00,75.2,43.3,29.75,North,0,3.6,3.6,32,0.00,CLR,,0.00,WeatherDisplay:10.37,2013-07-10 23:29:00,
2013-07-10 19:30:00,75.0,43.1,29.75,West,270,3.6,3.6,32,0.00,CLR,,0.00,WeatherDisplay:10.37,2013-07-10 23:30:00,
2013-07-10 19:32:00,75.0,44.0,29.77,NNW,337,3.6,3.6,33,0.00,CLR,,0.00,WeatherDisplay:10.37,2013-07-10 23:32:00,
2013-07-10 19:35:00,75.0,44.0,29.78,NNW,337,3.6,3.6,33,0.00,CLR,,0.00,WeatherDisplay:10.37,2013-07-10 23:35:00,
2013-07-10 19:37:00,74.8,43.0,29.78,North,0,3.5,3.5,32,0.00,CLR,,0.00,WeatherDisplay:10.37,2013-07-10 23:37:00,
2013-07-10 19:39:00,74.8,43.0,29.75,WSW,247,2.8,2.8,32,0.00,CLR,,0.00,WeatherDisplay:10.37,2013-07-10 23:39:00,
2013-07-10 19:40:00,74.8,43.0,29.75,WSW,247,2.8,2.8,32,0.00,CLR,,0.00,WeatherDisplay:10.37,2013-07-10 23:40:00,
2013-07-10 19:42:00,74.8,43.0,29.80,NNW,337,2.8,2.8,32,0.00,CLR,,0.00,WeatherDisplay:10.37,2013-07-10 23:42:00,
2013-07-10 19:44:00,74.8,43.8,29.75,NNW,337,2.8,2.8,33,0.00,CLR,,0.00,WeatherDisplay:10.37,2013-07-10 23:44:00,
2013-07-10 19:47:00,74.7,43.6,29.77,NNW,337,2.8,2.8,33,0.00,CLR,,0.00,WeatherDisplay:10.37,2013-07-10 23:47:00,
2013-07-10 19:48:00,74.7,43.6,29.75,NE,45,2.8,2.8,33,0.00,CLR,,0.00,WeatherDisplay:10.37,2013-07-10 23:48:00,
2013-07-10 19:49:00,74.7,43.6,29.75,NE,45,2.8,2.8,33,0.00,CLR,,0.00,WeatherDisplay:10.37,2013-07-10 23:49:00,
2013-07-10 19:50:00,74.7,43.6,29.75,North,0,2.8,2.8,33,0.00,CLR,,0.00,WeatherDisplay:10.37,2013-07-10 23:50:00,
2013-07-10 19:53:00,74.5,42.7,29.75,NNE,22,2.8,2.8,32,0.00,CLR,,0.00,WeatherDisplay:10.37,2013-07-10 23:53:00,
2013-07-10 19:54:00,74.3,42.5,29.77,North,0,2.8,2.8,32,0.00,CLR,,0.00,WeatherDisplay:10.37,2013-07-10 23:54:00,
2013-07-10 19:55:00,74.3,42.5,29.77,North,0,2.8,2.8,32,0.00,CLR,,0.00,WeatherDisplay:10.37,2013-07-10 23:55:00,
2013-07-10 19:57:00,74.1,42.4,29.77,North,0,2.8,2.8,32,0.00,CLR,,0.00,WeatherDisplay:10.37,2013-07-10 23:57:00,
2013-07-10 19:58:00,74.1,42.4,29.77,North,0,2.8,2.8,32,0.00,CLR,,0.00,WeatherDisplay:10.37,2013-07-10 23:58:00,
2013-07-10 19:59:00,74.1,42.4,29.77,NE,45,2.8,2.8,32,0.00,CLR,,0.00,WeatherDisplay:10.37,2013-07-10 23:59:00,
2013-07-10 20:03:00,73.9,43.0,29.77,North,0,2.8,2.8,33,0.00,CLR,,0.00,WeatherDisplay:10.37,2013-07-11 00:03:00,
2013-07-10 20:04:00,73.9,43.0,29.77,North,0,2.8,2.8,33,0.00,CLR,,0.00,WeatherDisplay:10.37,2013-07-11 00:04:00,
2013-07-10 20:05:00,73.9,43.0,29.77,WSW,247,2.8,2.8,33,0.00,CLR,,0.00,WeatherDisplay:10.37,2013-07-11 00:05:00,
2013-07-10 20:06:00,73.9,43.0,29.81,North,0,2.8,2.8,33,0.00,CLR,,0.00,WeatherDisplay:10.37,2013-07-11 00:06:00,
2013-07-10 20:07:00,73.9,43.0,29.81,North,0,2.8,2.8,33,0.00,CLR,,0.00,WeatherDisplay:10.37,2013-07-11 00:07:00,
2013-07-10 20:08:00,73.9,42.2,29.77,South,180,2.8,2.8,32,0.00,CLR,,0.00,WeatherDisplay:10.37,2013-07-11 00:08:00,
2013-07-10 20:10:00,73.8,42.0,29.77,South,180,2.8,0.0,32,0.00,CLR,,0.00,WeatherDisplay:10.37,2013-07-11 00:10:00,
2013-07-10 20:11:00,73.6,42.7,29.77,West,270,2.8,2.8,33,0.00,CLR,,0.00,WeatherDisplay:10.37,2013-07-11 00:11:00,
2013-07-10 20:12:00,73.6,42.7,29.77,West,270,2.8,2.8,33,0.00,CLR,,0.00,WeatherDisplay:10.37,2013-07-11 00:12:00,
2013-07-10 20:14:00,73.6,41.9,29.80,ESE,112,2.8,2.8,32,0.00,CLR,,0.00,WeatherDisplay:10.37,2013-07-11 00:14:00,
2013-07-10 20:18:00,73.6,41.1,29.81,NW,315,2.8,2.8,31,0.00,CLR,,0.00,WeatherDisplay:10.37,2013-07-11 00:18:00,
2013-07-10 20:19:00,73.6,41.1,29.78,ESE,112,2.8,2.8,31,0.00,CLR,,0.00,WeatherDisplay:10.37,2013-07-11 00:19:00,
2013-07-10 20:21:00,73.6,41.1,29.80,ESE,112,2.8,0.0,31,0.00,CLR,,0.00,WeatherDisplay:10.37,2013-07-11 00:21:00,
2013-07-10 20:24:00,73.6,41.9,29.77,NW,315,2.8,2.8,32,0.00,CLR,,0.00,WeatherDisplay:10.37,2013-07-11 00:24:00,
2013-07-10 20:25:00,73.6,41.9,29.80,North,0,2.8,2.8,32,0.00,CLR,,0.00,WeatherDisplay:10.37,2013-07-11 00:25:00,
2013-07-10 20:27:00,73.4,41.7,29.81,North,0,2.8,2.8,32,0.00,CLR,,0.00,WeatherDisplay:10.37,2013-07-11 00:27:00,
2013-07-10 20:28:00,73.4,41.7,29.78,West,270,2.8,2.8,32,0.00,CLR,,0.00,WeatherDisplay:10.37,2013-07-11 00:28:00,
2013-07-10 20:29:00,73.2,41.6,29.80,NW,315,2.8,0.0,32,0.00,CLR,,0.00,WeatherDisplay:10.37,2013-07-11 00:29:00,
2013-07-10 20:33:00,73.2,40.8,29.83,SE,135,2.8,2.8,31,0.00,CLR,,0.00,WeatherDisplay:10.37,2013-07-11 00:33:00,
2013-07-10 20:34:00,73.2,40.8,29.83,East,90,2.8,2.8,31,0.00,CLR,,0.00,WeatherDisplay:10.37,2013-07-11 00:34:00,
2013-07-10 20:35:00,73.0,39.8,29.81,NNW,337,2.8,2.8,30,0.00,CLR,,0.00,WeatherDisplay:10.37,2013-07-11 00:35:00,
2013-07-10 20:39:00,72.9,39.6,29.83,NNE,22,2.3,2.3,30,0.00,CLR,,0.00,WeatherDisplay:10.37,2013-07-11 00:39:00,
2013-07-10 20:40:00,72.9,38.7,29.83,WSW,247,2.3,2.3,29,0.00,CLR,,0.00,WeatherDisplay:10.37,2013-07-11 00:40:00,
2013-07-10 20:41:00,72.7,38.6,29.81,North,0,2.3,2.3,29,0.00,CLR,,0.00,WeatherDisplay:10.37,2013-07-11 00:41:00,
2013-07-10 20:42:00,72.7,38.6,29.81,North,0,2.3,2.3,29,0.00,CLR,,0.00,WeatherDisplay:10.37,2013-07-11 00:42:00,
2013-07-10 20:44:00,72.5,38.4,29.84,West,270,2.3,2.3,29,0.00,CLR,,0.00,WeatherDisplay:10.37,2013-07-11 00:44:00,
2013-07-10 20:45:00,72.5,38.4,29.84,West,270,2.3,2.3,29,0.00,CLR,,0.00,WeatherDisplay:10.37,2013-07-11 00:45:00,
2013-07-10 20:47:00,72.5,39.3,29.81,SE,135,2.3,0.0,30,0.00,CLR,,0.00,WeatherDisplay:10.37,2013-07-11 00:47:00,
2013-07-10 20:49:00,72.5,40.1,29.84,SE,135,2.3,0.0,31,0.00,CLR,,0.00,WeatherDisplay:10.37,2013-07-11 00:49:00,
2013-07-10 20:50:00,72.3,40.0,29.80,SE,135,2.3,2.3,31,0.00,CLR,,0.00,WeatherDisplay:10.37,2013-07-11 00:50:00,
2013-07-10 20:51:00,72.3,40.0,29.80,SE,135,2.3,2.3,31,0.00,CLR,,0.00,WeatherDisplay:10.37,2013-07-11 00:51:00,
2013-07-10 20:52:00,72.3,40.0,29.80,WNW,292,2.3,2.3,31,0.00,CLR,,0.00,WeatherDisplay:10.37,2013-07-11 00:52:00,
2013-07-10 20:55:00,72.1,39.8,29.81,NNE,22,2.3,0.0,31,0.00,CLR,,0.00,WeatherDisplay:10.37,2013-07-11 00:55:00,
2013-07-10 20:56:00,72.0,39.7,29.75,East,90,2.3,0.0,31,0.00,CLR,,0.00,WeatherDisplay:10.37,2013-07-11 00:56:00,
2013-07-10 20:59:00,72.0,38.8,29.81,SSE,157,2.3,0.0,30,0.00,CLR,,0.00,WeatherDisplay:10.37,2013-07-11 00:59:00,
2013-07-10 21:01:00,72.0,38.8,29.81,NNW,337,2.3,0.0,30,0.00,CLR,,0.00,WeatherDisplay:10.37,2013-07-11 01:01:00,
2013-07-10 21:02:00,71.8,38.7,29.77,NNE,22,2.3,0.0,30,0.00,CLR,,0.00,WeatherDisplay:10.37,2013-07-11 01:02:00,
2013-07-10 21:03:00,71.8,38.7,29.77,NNE,22,2.3,0.0,30,0.00,CLR,,0.00,WeatherDisplay:10.37,2013-07-11 01:03:00,
2013-07-10 21:07:00,71.8,39.5,29.77,NNE,22,2.3,0.0,31,0.00,CLR,,0.00,WeatherDisplay:10.37,2013-07-11 01:07:00,
2013-07-10 21:08:00,71.4,39.2,29.77,SSW,202,2.3,0.0,31,0.00,CLR,,0.00,WeatherDisplay:10.37,2013-07-11 01:08:00,
2013-07-10 21:10:00,71.4,39.2,29.77,SSW,202,2.3,0.0,31,0.00,CLR,,0.00,WeatherDisplay:10.37,2013-07-11 01:10:00,
2013-07-10 21:11:00,71.4,38.4,29.81,SSW,202,2.3,0.0,30,0.00,CLR,,0.00,WeatherDisplay:10.37,2013-07-11 01:11:00,
2013-07-10 21:12:00,71.4,38.4,29.81,SSW,202,2.3,0.0,30,0.00,CLR,,0.00,WeatherDisplay:10.37,2013-07-11 01:12:00,
2013-07-10 21:17:00,71.1,38.0,29.88,NNE,22,2.3,0.0,30,0.00,CLR,,0.00,WeatherDisplay:10.37,2013-07-11 01:17:00,
2013-07-10 21:18:00,71.1,38.0,29.88,NNE,22,2.3,0.0,30,0.00,CLR,,0.00,WeatherDisplay:10.37,2013-07-11 01:18:00,
2013-07-10 21:19:00,71.1,38.9,29.83,NNE,22,2.3,0.0,31,0.00,CLR,,0.00,WeatherDisplay:10.37,2013-07-11 01:19:00,
2013-07-10 21:23:00,70.9,38.7,29.77,North,0,2.3,0.0,31,0.00,CLR,,0.00,WeatherDisplay:10.37,2013-07-11 01:23:00,
2013-07-10 21:24:00,70.9,38.7,29.77,North,0,2.3,0.0,31,0.00,CLR,,0.00,WeatherDisplay:10.37,2013-07-11 01:24:00,
2013-07-10 21:26:00,70.9,38.7,29.83,North,0,2.3,0.0,31,0.00,CLR,,0.00,WeatherDisplay:10.37,2013-07-11 01:26:00,
2013-07-10 21:27:00,70.7,38.6,29.78,North,0,2.3,0.0,31,0.00,CLR,,0.00,WeatherDisplay:10.37,2013-07-11 01:27:00,
2013-07-10 21:30:00,70.5,37.6,29.84,East,90,2.3,0.0,30,0.00,CLR,,0.00,WeatherDisplay:10.37,2013-07-11 01:30:00,
2013-07-10 21:31:00,70.5,37.6,29.84,East,90,2.3,0.0,30,0.00,CLR,,0.00,WeatherDisplay:10.37,2013-07-11 01:31:00,
2013-07-10 21:34:00,70.3,37.4,29.85,East,90,2.3,0.0,30,0.00,CLR,,0.00,WeatherDisplay:10.37,2013-07-11 01:34:00,
2013-07-10 21:35:00,70.3,37.4,29.80,NNE,22,2.3,0.0,30,0.00,CLR,,0.00,WeatherDisplay:10.37,2013-07-11 01:35:00,
2013-07-10 21:37:00,70.3,38.3,29.80,NNE,22,2.3,0.0,31,0.00,CLR,,0.00,WeatherDisplay:10.37,2013-07-11 01:37:00,
2013-07-10 21:38:00,70.2,38.1,29.83,NNE,22,2.3,0.0,31,0.00,CLR,,0.00,WeatherDisplay:10.37,2013-07-11 01:38:00,
2013-07-10 21:41:00,70.0,37.9,29.81,NNE,22,0.0,0.0,31,0.00,CLR,,0.00,WeatherDisplay:10.37,2013-07-11 01:41:00,
2013-07-10 21:42:00,70.0,37.9,29.81,NNE,22,0.0,0.0,31,0.00,CLR,,0.00,WeatherDisplay:10.37,2013-07-11 01:42:00,
2013-07-10 21:43:00,70.0,37.9,29.81,North,0,0.0,0.0,31,0.00,CLR,,0.00,WeatherDisplay:10.37,2013-07-11 01:43:00,
2013-07-10 21:48:00,69.4,36.6,29.80,SW,225,0.0,0.0,30,0.00,CLR,,0.00,WeatherDisplay:10.37,2013-07-11 01:48:00,
2013-07-10 21:49:00,69.4,36.6,29.81,South,180,0.0,0.0,30,0.00,CLR,,0.00,WeatherDisplay:10.37,2013-07-11 01:49:00,
2013-07-10 21:52:00,69.3,36.5,29.89,SSE,157,0.0,0.0,30,0.00,CLR,,0.00,WeatherDisplay:10.37,2013-07-11 01:52:00,
2013-07-10 21:53:00,69.1,36.3,29.81,SSE,157,0.0,0.0,30,0.00,CLR,,0.00,WeatherDisplay:10.37,2013-07-11 01:53:00,
2013-07-10 21:54:00,69.1,36.3,29.81,SSE,157,0.0,0.0,30,0.00,CLR,,0.00,WeatherDisplay:10.37,2013-07-11 01:54:00,
2013-07-10 21:55:00,69.1,36.3,29.81,SSE,157,0.0,0.0,30,0.00,CLR,,0.00,WeatherDisplay:10.37,2013-07-11 01:55:00,
2013-07-10 21:58:00,68.9,35.3,29.81,SSE,157,0.0,0.0,29,0.00,CLR,,0.00,WeatherDisplay:10.37,2013-07-11 01:58:00,
2013-07-10 21:59:00,68.7,35.2,29.84,SSE,157,0.0,0.0,29,0.00,CLR,,0.00,WeatherDisplay:10.37,2013-07-11 01:59:00,
2013-07-10 22:00:00,68.7,35.2,29.84,SSE,157,0.0,0.0,29,0.00,CLR,,0.00,WeatherDisplay:10.37,2013-07-11 02:00:00,
2013-07-10 22:04:00,68.4,34.8,29.81,SSE,157,0.0,0.0,29,0.00,CLR,,0.00,WeatherDisplay:10.37,2013-07-11 02:04:00,
2013-07-10 22:05:00,68.4,34.8,29.81,SSE,157,0.0,0.0,29,0.00,CLR,,0.00,WeatherDisplay:10.37,2013-07-11 02:05:00,
2013-07-10 22:06:00,68.4,34.8,29.81,SSE,157,0.0,0.0,29,0.00,CLR,,0.00,WeatherDisplay:10.37,2013-07-11 02:06:00,
2013-07-10 22:10:00,67.8,35.2,29.85,SSE,157,0.0,0.0,30,0.00,CLR,,0.00,WeatherDisplay:10.37,2013-07-11 02:10:00,
2013-07-10 22:11:00,67.8,35.2,29.85,SSE,157,0.0,0.0,30,0.00,CLR,,0.00,WeatherDisplay:10.37,2013-07-11 02:11:00,
2013-07-10 22:12:00,67.8,35.2,29.84,SSE,157,0.0,0.0,30,0.00,CLR,,0.00,WeatherDisplay:10.37,2013-07-11 02:12:00,
2013-07-10 22:14:00,67.6,35.1,29.81,SSE,157,0.0,0.0,30,0.00,CLR,,0.00,WeatherDisplay:10.37,2013-07-11 02:14:00,
2013-07-10 22:15:00,67.6,35.1,29.90,SSE,157,0.0,0.0,30,0.00,CLR,,0.00,WeatherDisplay:10.37,2013-07-11 02:15:00,
2013-07-10 22:17:00,67.5,34.9,29.84,SSE,157,0.0,0.0,30,0.00,CLR,,0.00,WeatherDisplay:10.37,2013-07-11 02:17:00,
2013-07-10 22:19:00,67.3,35.6,29.81,SSE,157,0.0,0.0,31,0.00,CLR,,0.00,WeatherDisplay:10.37,2013-07-11 02:19:00,
2013-07-10 22:22:00,67.3,36.4,29.81,SSE,157,0.0,0.0,32,0.00,CLR,,0.00,WeatherDisplay:10.37,2013-07-11 02:22:00,
2013-07-10 22:23:00,67.3,36.4,29.81,SSE,157,0.0,0.0,32,0.00,CLR,,0.00,WeatherDisplay:10.37,2013-07-11 02:23:00,
2013-07-10 22:24:00,67.1,37.0,29.81,SSE,157,0.0,0.0,33,0.00,CLR,,0.00,WeatherDisplay:10.37,2013-07-11 02:24:00,
2013-07-10 22:28:00,67.1,37.0,29.87,SSE,157,0.0,0.0,33,0.00,CLR,,0.00,WeatherDisplay:10.37,2013-07-11 02:28:00,
2013-07-10 22:29:00,67.1,37.0,29.81,SSE,157,0.0,0.0,33,0.00,CLR,,0.00,WeatherDisplay:10.37,2013-07-11 02:29:00,
2013-07-10 22:32:00,67.1,36.2,29.91,SSE,157,0.0,0.0,32,0.00,CLR,,0.00,WeatherDisplay:10.37,2013-07-11 02:32:00,
2013-07-10 22:34:00,67.1,36.2,29.91,SSE,157,0.0,0.0,32,0.00,CLR,,0.00,WeatherDisplay:10.37,2013-07-11 02:34:00,
2013-07-10 22:36:00,67.1,36.2,29.81,SSE,157,0.0,0.0,32,0.00,CLR,,0.00,WeatherDisplay:10.37,2013-07-11 02:36:00,
2013-07-10 22:38:00,67.1,37.0,29.91,NE,45,0.0,0.0,33,0.00,CLR,,0.00,WeatherDisplay:10.37,2013-07-11 02:38:00,
2013-07-10 22:41:00,67.3,37.9,29.90,NNW,337,0.0,0.0,34,0.00,CLR,,0.00,WeatherDisplay:10.37,2013-07-11 02:41:00,
2013-07-10 22:42:00,67.3,37.9,29.90,NNW,337,0.0,0.0,34,0.00,CLR,,0.00,WeatherDisplay:10.37,2013-07-11 02:42:00,
2013-07-10 22:44:00,67.3,38.7,29.80,NNW,337,0.0,0.0,35,0.00,CLR,,0.00,WeatherDisplay:10.37,2013-07-11 02:44:00,
2013-07-10 22:47:00,67.3,38.7,29.90,North,0,0.0,0.0,35,0.00,CLR,,0.00,WeatherDisplay:10.37,2013-07-11 02:47:00,
2013-07-10 22:49:00,67.3,38.7,29.78,North,0,0.0,0.0,35,0.00,CLR,,0.00,WeatherDisplay:10.37,2013-07-11 02:49:00,
2013-07-10 22:50:00,67.3,38.7,29.78,North,0,0.0,0.0,35,0.00,CLR,,0.00,WeatherDisplay:10.37,2013-07-11 02:50:00,
2013-07-10 22:54:00,67.3,37.9,29.84,NNW,337,0.0,0.0,34,0.00,CLR,,0.00,WeatherDisplay:10.37,2013-07-11 02:54:00,
2013-07-10 22:55:00,67.3,37.9,29.84,NNW,337,0.0,0.0,34,0.00,CLR,,0.00,WeatherDisplay:10.37,2013-07-11 02:55:00,
2013-07-10 22:58:00,67.3,38.7,29.78,WNW,292,0.0,0.0,35,0.00,CLR,,0.00,WeatherDisplay:10.37,2013-07-11 02:58:00,
2013-07-10 22:59:00,67.3,38.7,29.84,NNW,337,0.0,0.0,35,0.00,CLR,,0.00,WeatherDisplay:10.37,2013-07-11 02:59:00,
2013-07-10 23:00:00,67.3,39.4,29.84,NNW,337,0.0,0.0,36,0.00,CLR,,0.00,WeatherDisplay:10.37,2013-07-11 03:00:00,
2013-07-10 23:02:00,67.1,39.2,29.77,NNW,337,0.0,0.0,36,0.00,CLR,,0.00,WeatherDisplay:10.37,2013-07-11 03:02:00,
2013-07-10 23:04:00,67.1,38.5,29.88,SW,225,0.0,0.0,35,0.00,CLR,,0.00,WeatherDisplay:10.37,2013-07-11 03:04:00,
2013-07-10 23:06:00,67.1,38.5,29.84,SSE,157,0.7,0.0,35,0.00,CLR,,0.00,WeatherDisplay:10.37,2013-07-11 03:06:00,
2013-07-10 23:10:00,67.1,37.0,29.83,SW,225,1.2,1.2,33,0.00,CLR,,0.00,WeatherDisplay:10.37,2013-07-11 03:10:00,
2013-07-10 23:11:00,67.1,37.0,29.83,SW,225,1.2,0.0,33,0.00,CLR,,0.00,WeatherDisplay:10.37,2013-07-11 03:11:00,
2013-07-10 23:12:00,67.1,37.0,29.83,SW,225,1.2,0.0,33,0.00,CLR,,0.00,WeatherDisplay:10.37,2013-07-11 03:12:00,
2013-07-10 23:13:00,67.1,37.0,29.83,NNW,337,1.2,0.0,33,0.00,CLR,,0.00,WeatherDisplay:10.37,2013-07-11 03:13:00,
2013-07-10 23:15:00,67.1,37.0,29.88,NNW,337,1.2,0.0,33,0.00,CLR,,0.00,WeatherDisplay:10.37,2013-07-11 03:15:00,
2013-07-10 23:16:00,67.1,37.0,29.83,East,90,1.2,0.0,33,0.00,CLR,,0.00,WeatherDisplay:10.37,2013-07-11 03:16:00,
2013-07-10 23:18:00,66.9,36.1,29.83,NE,45,1.2,0.0,32,0.00,CLR,,0.00,WeatherDisplay:10.37,2013-07-11 03:18:00,
2013-07-10 23:20:00,66.9,36.9,29.83,NE,45,1.2,0.0,33,0.00,CLR,,0.00,WeatherDisplay:10.37,2013-07-11 03:20:00,
2013-07-10 23:23:00,66.9,36.9,29.84,NNW,337,1.2,0.0,33,0.00,CLR,,0.00,WeatherDisplay:10.37,2013-07-11 03:23:00,
2013-07-10 23:24:00,66.9,36.9,29.84,NNW,337,1.2,0.0,33,0.00,CLR,,0.00,WeatherDisplay:10.37,2013-07-11 03:24:00,
2013-07-10 23:25:00,66.9,37.6,29.83,NW,315,1.2,0.0,34,0.00,CLR,,0.00,WeatherDisplay:10.37,2013-07-11 03:25:00,
2013-07-10 23:26:00,66.7,37.5,29.83,NW,315,1.2,0.0,34,0.00,CLR,,0.00,WeatherDisplay:10.37,2013-07-11 03:26:00,
2013-07-10 23:27:00,66.7,37.5,29.83,NW,315,1.2,0.0,34,0.00,CLR,,0.00,WeatherDisplay:10.37,2013-07-11 03:27:00,
2013-07-10 23:29:00,66.6,37.3,29.87,SW,225,1.2,0.0,34,0.00,CLR,,0.00,WeatherDisplay:10.37,2013-07-11 03:29:00,
2013-07-10 23:31:00,66.6,37.3,29.88,SSW,202,1.2,0.0,34,0.00,CLR,,0.00,WeatherDisplay:10.37,2013-07-11 03:31:00,
2013-07-10 23:33:00,66.2,37.0,29.86,SSW,202,1.2,0.0,34,0.00,CLR,,0.00,WeatherDisplay:10.37,2013-07-11 03:33:00,
2013-07-10 23:34:00,66.2,37.0,29.88,SSW,202,1.2,0.0,34,0.00,CLR,,0.00,WeatherDisplay:10.37,2013-07-11 03:34:00,
2013-07-10 23:35:00,66.0,36.8,29.84,SSW,202,1.2,0.0,34,0.00,CLR,,0.00,WeatherDisplay:10.37,2013-07-11 03:35:00,
2013-07-10 23:38:00,65.8,35.9,29.84,South,180,1.2,0.0,33,0.00,CLR,,0.00,WeatherDisplay:10.37,2013-07-11 03:38:00,
2013-07-10 23:41:00,65.7,35.8,29.84,South,180,0.0,0.0,33,0.00,CLR,,0.00,WeatherDisplay:10.37,2013-07-11 03:41:00,
2013-07-10 23:43:00,65.7,35.8,29.86,South,180,0.0,0.0,33,0.00,CLR,,0.00,WeatherDisplay:10.37,2013-07-11 03:43:00,
2013-07-10 23:44:00,65.5,35.6,29.88,South,180,0.0,0.0,33,0.00,CLR,,0.00,WeatherDisplay:10.37,2013-07-11 03:44:00,
2013-07-10 23:45:00,65.5,35.6,29.88,South,180,0.0,0.0,33,0.00,CLR,,0.00,WeatherDisplay:10.37,2013-07-11 03:45:00,
2013-07-10 23:49:00,65.5,35.6,29.84,SW,225,0.0,0.0,33,0.00,CLR,,0.00,WeatherDisplay:10.37,2013-07-11 03:49:00,
2013-07-10 23:51:00,65.1,35.3,29.88,SSW,202,0.0,0.0,33,0.00,CLR,,0.00,WeatherDisplay:10.37,2013-07-11 03:51:00,
2013-07-10 23:53:00,65.1,36.0,29.88,South,180,0.0,0.0,34,0.00,CLR,,0.00,WeatherDisplay:10.37,2013-07-11 03:53:00,
2013-07-10 23:54:00,65.1,36.0,29.88,South,180,0.0,0.0,34,0.00,CLR,,0.00,WeatherDisplay:10.37,2013-07-11 03:54:00,
2013-07-10 23:56:00,64.8,35.7,29.88,SSE,157,0.0,0.0,34,0.00,CLR,,0.00,WeatherDisplay:10.37,2013-07-11 03:56:00,
2013-07-10 23:57:00,64.8,35.7,29.88,SSE,157,0.0,0.0,34,0.00,CLR,,0.00,WeatherDisplay:10.37,2013-07-11 03:57:00,
2013-07-10 23:59:00,64.8,35.7,29.84,SSE,157,0.0,0.0,34,0.00,CLR,,0.00,WeatherDisplay:10.37,2013-07-11 03:59:00,